M I D A S
Marine Information and Data Acquisition System
Tripno 1713 of the Zeeleeuw from 2009-06-22 07:20:52 to 2009-06-22 15:14:20
Back to CruiseResearch ActivitiesStationsMapUnderway DataData graphs

EquipmentUnitsComment
TimeDGPSUTC
LatitudeDGPSDM.mWGS84
LongitudeDGPSDM.mWGS84
TemperatureSBE03/SBE38deg celciusITS90
ConductivitySBE21S/mITS90
SalinitySBE21 Practical Salinity Units
ChlorophylAChelsea fluorimeterg/lCalibrated in Aceton
Missing or incorrect values are displayed as -999
Sea surface data collected by the RV Zeeleeuw from 2009-06-22 06:43:57 to 2009-06-22 15:30:18
                                                                                    Next 1000 lines
Time Latitude Longitude Temperature Conductivity Salinity ChlorophylA
2009-06-22 06:44:07 51°13.663 2°55.96 19.5587 0.333394 1.917008 -0.129967
2009-06-22 06:44:12 51°13.663 2°55.96 19.5607 0.333394 1.917008 -0.129967
2009-06-22 06:44:17 51°13.663 2°55.96 19.562 0.333394 1.917008 -0.129967
2009-06-22 06:44:22 51°13.663 2°55.96 19.5664 0.333394 1.917008 -0.129967
2009-06-22 06:44:27 51°13.663 2°55.96 19.5684 0.333394 1.917076 -0.095143
2009-06-22 06:44:32 51°13.663 2°55.96 19.5712 0.333394 1.917042 -0.129967
2009-06-22 06:44:37 51°13.663 2°55.96 19.5731 0.333497 1.917669 -0.095143
2009-06-22 06:44:42 51°13.663 2°55.96 19.5709 0.333497 1.917669 -0.095143
2009-06-22 06:44:47 51°13.663 2°55.96 19.573 0.333497 1.917669 -0.129967
2009-06-22 06:44:52 51°13.663 2°55.96 19.5708 0.333497 1.917703 -0.129967
2009-06-22 06:44:57 51°13.663 2°55.96 19.5713 0.333497 1.917737 -0.095143
2009-06-22 06:45:02 51°13.663 2°55.96 19.5697 0.333497 1.91777 -0.095143
2009-06-22 06:45:07 51°13.663 2°55.96 19.5702 0.333497 1.91777 -0.129967
2009-06-22 06:45:12 51°13.663 2°55.96 19.5688 0.333497 1.91777 -0.129967
2009-06-22 06:45:17 51°13.663 2°55.96 19.5688 0.333497 1.917804 -0.129967
2009-06-22 06:45:22 51°13.663 2°55.96 19.5688 0.333497 1.917804 -0.129967
2009-06-22 06:45:27 51°13.663 2°55.96 19.5686 0.333497 1.917838 -0.095143
2009-06-22 06:45:32 51°13.663 2°55.96 19.5695 0.333497 1.917838 -0.129967
2009-06-22 06:45:37 51°13.663 2°55.96 19.5692 0.333497 1.917838 -0.095143
2009-06-22 06:45:42 51°13.663 2°55.96 19.5694 0.333497 1.917838 -0.095143
2009-06-22 06:45:47 51°13.662 2°55.96 19.5686 0.333394 1.917211 -0.129967
2009-06-22 06:45:52 51°13.662 2°55.96 19.5684 0.333497 1.917872 -0.129967
2009-06-22 06:45:57 51°13.662 2°55.96 19.5685 0.333394 1.917245 -0.095143
2009-06-22 06:46:02 51°13.662 2°55.96 19.5696 0.333497 1.917906 -0.129967
2009-06-22 06:46:07 51°13.662 2°55.96 19.5696 0.333497 1.917906 -0.129967
2009-06-22 06:46:12 51°13.662 2°55.96 19.5692 0.333497 1.917906 -0.129967
2009-06-22 06:46:17 51°13.662 2°55.96 19.5699 0.333497 1.917906 -0.129967
2009-06-22 06:46:22 51°13.662 2°55.96 19.5698 0.333497 1.91794 -0.095143
2009-06-22 06:46:27 51°13.662 2°55.96 19.5707 0.333497 1.917973 -0.095143
2009-06-22 06:46:32 51°13.662 2°55.96 19.5709 0.333497 1.918007 -0.129967
2009-06-22 06:46:37 51°13.662 2°55.96 19.5715 0.333394 1.91738 -0.129967
2009-06-22 06:46:42 51°13.662 2°55.96 19.5717 0.333394 1.91738 -0.129967
2009-06-22 06:46:47 51°13.662 2°55.96 19.5713 0.333497 1.918007 -0.129967
2009-06-22 06:46:52 51°13.662 2°55.96 19.5699 0.333497 1.918041 -0.095143
2009-06-22 06:46:57 51°13.662 2°55.96 19.5704 0.333497 1.918041 -0.129967
2009-06-22 06:47:02 51°13.662 2°55.96 19.5701 0.333497 1.918041 -0.129967
2009-06-22 06:47:07 51°13.662 2°55.96 19.5707 0.333497 1.918075 -0.129967
2009-06-22 06:47:12 51°13.662 2°55.96 19.571 0.333497 1.918075 -0.129967
2009-06-22 06:47:17 51°13.663 2°55.96 19.5714 0.333497 1.918109 -0.095143
2009-06-22 06:47:22 51°13.663 2°55.96 19.5719 0.333497 1.918109 -0.129967
2009-06-22 06:47:27 51°13.663 2°55.96 19.5717 0.333497 1.918109 -0.129967
2009-06-22 06:47:32 51°13.663 2°55.96 19.5724 0.333497 1.918109 -0.129967
2009-06-22 06:47:37 51°13.663 2°55.959 19.5718 0.333497 1.918143 -0.095143
2009-06-22 06:47:42 51°13.662 2°55.959 19.5718 0.333497 1.918143 -0.095143
2009-06-22 06:47:47 51°13.662 2°55.959 19.5715 0.333394 1.917516 -0.095143
2009-06-22 06:47:52 51°13.662 2°55.959 19.5722 0.333497 1.918177 -0.129967
2009-06-22 06:47:57 51°13.662 2°55.96 19.5718 0.333497 1.918177 -0.129967
2009-06-22 06:48:02 51°13.662 2°55.96 19.5719 0.333497 1.918177 -0.129967
2009-06-22 06:48:07 51°13.662 2°55.959 19.5712 0.333497 1.91821 -0.129967
2009-06-22 06:48:12 51°13.662 2°55.96 19.5709 0.333497 1.91821 -0.129967
2009-06-22 06:48:17 51°13.662 2°55.96 19.5731 0.333497 1.918244 -0.129967
2009-06-22 06:48:22 51°13.662 2°55.959 19.5722 0.333497 1.918244 -0.129967
2009-06-22 06:48:27 51°13.662 2°55.959 19.5735 0.333497 1.918278 -0.129967
2009-06-22 06:48:32 51°13.662 2°55.959 19.5732 0.333497 1.918278 -0.129967
2009-06-22 06:48:37 51°13.662 2°55.959 19.5752 0.333497 1.918312 -0.129967
2009-06-22 06:48:42 51°13.662 2°55.959 19.5747 0.333497 1.918312 -0.129967
2009-06-22 06:48:47 51°13.662 2°55.959 19.574 0.333497 1.918312 -0.129967
2009-06-22 06:48:52 51°13.662 2°55.959 19.5749 0.333497 1.918346 -0.095143
2009-06-22 06:48:57 51°13.662 2°55.959 19.5731 0.333497 1.918346 -0.129967
2009-06-22 06:49:02 51°13.662 2°55.959 19.5748 0.333497 1.918346 -0.129967
2009-06-22 06:49:07 51°13.662 2°55.959 19.5735 0.333497 1.91838 -0.129967
2009-06-22 06:49:12 51°13.662 2°55.959 19.5729 0.333497 1.91838 -0.129967
2009-06-22 06:49:17 51°13.662 2°55.959 19.5732 0.333497 1.91838 -0.129967
2009-06-22 06:49:22 51°13.663 2°55.959 19.5758 0.333497 1.91838 -0.129967
2009-06-22 06:49:27 51°13.663 2°55.96 19.5759 0.333497 1.918414 -0.095143
2009-06-22 06:49:32 51°13.663 2°55.96 19.575 0.333497 1.918414 -0.129967
2009-06-22 06:49:37 51°13.663 2°55.96 19.5762 0.333497 1.918448 -0.095143
2009-06-22 06:49:42 51°13.663 2°55.959 19.5757 0.333497 1.918448 -0.095143
2009-06-22 06:49:47 51°13.663 2°55.959 19.5748 0.333497 1.918481 -0.129967
2009-06-22 06:49:52 51°13.663 2°55.959 19.5748 0.333497 1.918481 -0.129967
2009-06-22 06:49:57 51°13.663 2°55.96 19.5753 0.333497 1.918481 -0.129967
2009-06-22 06:50:02 51°13.663 2°55.96 19.5764 0.333497 1.918515 -0.129967
2009-06-22 06:50:07 51°13.663 2°55.96 19.5766 0.333497 1.918515 -0.095143
2009-06-22 06:50:12 51°13.663 2°55.96 19.5769 0.333497 1.918515 -0.095143
2009-06-22 06:50:17 51°13.663 2°55.96 19.5761 0.333497 1.918549 -0.129967
2009-06-22 06:50:22 51°13.663 2°55.96 19.5757 0.333497 1.918549 -0.129967
2009-06-22 06:50:27 51°13.663 2°55.96 19.5762 0.333497 1.918583 -0.129967
2009-06-22 06:50:32 51°13.663 2°55.96 19.5759 0.333497 1.918583 -0.129967
2009-06-22 06:50:37 51°13.663 2°55.96 19.5754 0.333497 1.918617 -0.129967
2009-06-22 06:50:42 51°13.663 2°55.96 19.5752 0.333497 1.918617 -0.129967
2009-06-22 06:50:47 51°13.663 2°55.96 19.5754 0.333497 1.918617 -0.129967
2009-06-22 06:50:52 51°13.663 2°55.96 19.5763 0.333497 1.918617 -0.129967
2009-06-22 06:50:57 51°13.663 2°55.96 19.5771 0.333497 1.918651 -0.095143
2009-06-22 06:51:02 51°13.663 2°55.96 19.5765 0.333497 1.918651 -0.129967
2009-06-22 06:51:07 51°13.664 2°55.961 19.5765 0.333497 1.918651 -0.129967
2009-06-22 06:51:12 51°13.664 2°55.961 19.5778 0.333497 1.918651 -0.129967
2009-06-22 06:51:17 51°13.664 2°55.961 19.5765 0.333497 1.918685 -0.129967
2009-06-22 06:51:22 51°13.664 2°55.961 19.5766 0.333497 1.918719 -0.095143
2009-06-22 06:51:27 51°13.664 2°55.961 19.577 0.333497 1.918719 -0.129967
2009-06-22 06:51:30 51°13.664 2°55.961 19.5784 0.333497 1.918719 -0.095143
2009-06-22 06:51:37 51°13.664 2°55.961 19.5776 0.333497 1.918752 -0.095143
2009-06-22 06:51:42 51°13.664 2°55.961 19.5765 0.333497 1.918752 -0.095143
2009-06-22 06:51:47 51°13.664 2°55.961 19.576 0.333497 1.918752 -0.129967
2009-06-22 06:51:52 51°13.664 2°55.961 19.5774 0.333497 1.918786 -0.095143
2009-06-22 06:51:57 51°13.663 2°55.96 19.5781 0.333497 1.918786 -0.095143
2009-06-22 06:52:02 51°13.663 2°55.96 19.5789 0.333497 1.91882 -0.129967
2009-06-22 06:52:07 51°13.663 2°55.96 19.5791 0.333497 1.91882 -0.129967
2009-06-22 06:52:12 51°13.663 2°55.96 19.5775 0.333497 1.91882 -0.129967
2009-06-22 06:52:17 51°13.663 2°55.96 19.5773 0.333497 1.918854 -0.129967
2009-06-22 06:52:22 51°13.663 2°55.96 19.5776 0.333497 1.918854 -0.129967
2009-06-22 06:52:27 51°13.663 2°55.96 19.5778 0.333497 1.918888 -0.129967
2009-06-22 06:52:32 51°13.663 2°55.96 19.5762 0.333497 1.918888 -0.129967
2009-06-22 06:52:37 51°13.663 2°55.96 19.5766 0.333497 1.918888 -0.095143
2009-06-22 06:52:42 51°13.663 2°55.96 19.5775 0.333497 1.918888 -0.095143
2009-06-22 06:52:47 51°13.663 2°55.96 19.5779 0.3336 1.919549 -0.129967
2009-06-22 06:52:52 51°13.663 2°55.96 19.5767 0.3336 1.919549 -0.095143
2009-06-22 06:52:57 51°13.663 2°55.96 19.5774 0.333497 1.918922 -0.129967
2009-06-22 06:53:02 51°13.663 2°55.96 19.5781 0.3336 1.919617 -0.129967
2009-06-22 06:53:07 51°13.663 2°55.96 19.5806 0.333497 1.918956 -0.129967
2009-06-22 06:53:12 51°13.663 2°55.961 19.5808 0.333497 1.918956 -0.129967
2009-06-22 06:53:17 51°13.664 2°55.961 19.5798 0.333497 1.91899 -0.129967
2009-06-22 06:53:22 51°13.664 2°55.961 19.5798 0.333497 1.919023 -0.129967
2009-06-22 06:53:27 51°13.664 2°55.961 19.5786 0.333497 1.919023 -0.129967
2009-06-22 06:53:32 51°13.664 2°55.961 19.5798 0.333497 1.919023 -0.129967
2009-06-22 06:53:37 51°13.664 2°55.961 19.5797 0.3336 1.919685 -0.129967
2009-06-22 06:53:41 51°13.664 2°55.961 19.5797 0.3336 1.919685 -0.129967
2009-06-22 06:53:47 51°13.664 2°55.961 19.5804 0.333497 1.919057 -0.129967
2009-06-22 06:53:52 51°13.663 2°55.961 19.5809 0.333497 1.919091 -0.095143
2009-06-22 06:53:56 51°13.663 2°55.961 19.5808 0.333497 1.919091 -0.129967
2009-06-22 06:54:01 51°13.663 2°55.961 19.5811 0.333497 1.919125 -0.129967
2009-06-22 06:54:06 51°13.663 2°55.96 19.5818 0.333497 1.919125 -0.129967
2009-06-22 06:54:11 51°13.662 2°55.96 19.5808 0.333497 1.919125 -0.129967
2009-06-22 06:54:16 51°13.662 2°55.959 19.5811 0.333497 1.919125 -0.129967
2009-06-22 06:54:20 51°13.662 2°55.959 19.5811 0.333497 1.919159 -0.129967
2009-06-22 06:54:25 51°13.662 2°55.959 19.5811 0.333497 1.919159 -0.129967
2009-06-22 06:54:31 51°13.662 2°55.959 19.582 0.333497 1.919193 -0.129967
2009-06-22 06:54:36 51°13.662 2°55.959 19.5818 0.333497 1.919227 -0.095143
2009-06-22 06:54:41 51°13.662 2°55.959 19.5817 0.333497 1.919227 -0.095143
2009-06-22 06:54:47 51°13.662 2°55.959 19.5794 0.333497 1.919227 -0.129967
2009-06-22 06:54:52 51°13.663 2°55.96 19.5803 0.333497 1.919227 -0.129967
2009-06-22 06:54:57 51°13.662 2°55.959 19.581 0.333497 1.919261 -0.129967
2009-06-22 06:55:02 51°13.662 2°55.959 19.5815 0.333497 1.919261 -0.129967
2009-06-22 06:55:06 51°13.662 2°55.959 19.58 0.333497 1.919295 -0.129967
2009-06-22 06:55:12 51°13.663 2°55.96 19.5813 0.333497 1.919295 -0.129967
2009-06-22 06:55:17 51°13.662 2°55.96 19.5817 0.333497 1.919295 -0.129967
2009-06-22 06:55:22 51°13.662 2°55.959 19.5817 0.333497 1.919329 -0.129967
2009-06-22 06:55:27 51°13.662 2°55.96 19.5807 0.333497 1.919329 -0.129967
2009-06-22 06:55:31 51°13.663 2°55.96 19.5806 0.333497 1.919329 -0.129967
2009-06-22 06:55:36 51°13.663 2°55.96 19.5855 0.333497 1.919363 -0.129967
2009-06-22 06:55:41 51°13.663 2°55.96 19.5846 0.333497 1.919363 -0.129967
2009-06-22 06:55:46 51°13.663 2°55.96 19.5808 0.333497 1.919363 -0.129967
2009-06-22 06:55:52 51°13.663 2°55.96 19.5763 0.333497 1.919396 -0.129967
2009-06-22 06:55:57 51°13.663 2°55.96 19.5769 0.333497 1.919396 -0.129967
2009-06-22 06:56:01 51°13.662 2°55.96 19.5795 0.333497 1.91943 -0.129967
2009-06-22 06:56:07 51°13.662 2°55.96 19.584 0.333497 1.91943 -0.129967
2009-06-22 06:56:12 51°13.662 2°55.96 19.5835 0.333497 1.91943 -0.129967
2009-06-22 06:56:17 51°13.662 2°55.96 19.5763 0.333497 1.919464 -0.129967
2009-06-22 06:56:22 51°13.662 2°55.96 19.5836 0.333497 1.919464 -0.129967
2009-06-22 06:56:27 51°13.662 2°55.96 19.5755 0.333497 1.919464 -0.095143
2009-06-22 06:56:32 51°13.662 2°55.96 19.5769 0.333497 1.919498 -0.129967
2009-06-22 06:56:37 51°13.662 2°55.96 19.5833 0.333497 1.919498 -0.129967
2009-06-22 06:56:42 51°13.662 2°55.959 19.5807 0.333497 1.919498 -0.129967
2009-06-22 06:56:47 51°13.662 2°55.96 19.5825 0.333497 1.919532 -0.129967
2009-06-22 06:56:52 51°13.662 2°55.96 19.5785 0.333497 1.919532 -0.129967
2009-06-22 06:56:57 51°13.662 2°55.96 19.5804 0.333497 1.919566 -0.095143
2009-06-22 06:57:02 51°13.662 2°55.96 19.5703 0.333497 1.919566 -0.095143
2009-06-22 06:57:07 51°13.662 2°55.96 19.5792 0.3336 1.920228 -0.129967
2009-06-22 06:57:12 51°13.662 2°55.96 19.5843 0.3336 1.920228 -0.129967
2009-06-22 06:57:17 51°13.662 2°55.96 19.5797 0.333497 1.9196 -0.129967
2009-06-22 06:57:21 51°13.662 2°55.96 19.5658 0.333497 1.919634 -0.095143
2009-06-22 06:57:26 51°13.662 2°55.96 19.5805 0.333497 1.919634 -0.129967
2009-06-22 06:57:31 51°13.663 2°55.961 19.5827 0.333497 1.919634 -0.129967
2009-06-22 06:57:37 51°13.663 2°55.961 19.5813 0.333497 1.919668 -0.095143
2009-06-22 06:57:41 51°13.663 2°55.96 19.5815 0.333497 1.919668 -0.095143
2009-06-22 06:57:46 51°13.663 2°55.96 19.5808 0.333497 1.919668 -0.129967
2009-06-22 06:57:51 51°13.663 2°55.96 19.5768 0.333497 1.919702 -0.129967
2009-06-22 06:57:56 51°13.663 2°55.961 19.5758 0.333497 1.919702 -0.129967
2009-06-22 06:58:01 51°13.663 2°55.961 19.5786 0.3336 1.920363 -0.129967
2009-06-22 06:58:06 51°13.663 2°55.961 19.5786 0.3336 1.920363 -0.129967
2009-06-22 06:58:08 51°13.663 2°55.961 19.5827 0.333497 1.919769 -0.129967
2009-06-22 06:58:08 51°13.663 2°55.961 19.5847 0.3336 1.920431 -0.129967
2009-06-22 06:58:08 51°13.663 2°55.961 19.5804 0.3336 1.920363 -0.129967
2009-06-22 06:58:08 51°13.663 2°55.961 19.5796 0.3336 1.920397 -0.129967
2009-06-22 06:58:31 51°13.663 2°55.961 19.5845 0.3336 1.920431 -0.129967
2009-06-22 06:58:36 51°13.663 2°55.961 19.5851 0.3336 1.920465 -0.129967
2009-06-22 06:58:41 51°13.663 2°55.961 19.5854 0.3336 1.920465 -0.129967
2009-06-22 06:58:46 51°13.663 2°55.961 19.584 0.3336 1.920465 -0.129967
2009-06-22 06:58:52 51°13.663 2°55.961 19.5826 0.3336 1.920499 -0.129967
2009-06-22 06:58:57 51°13.663 2°55.961 19.5821 0.3336 1.920499 -0.129967
2009-06-22 06:59:01 51°13.663 2°55.961 19.5819 0.3336 1.920533 -0.129967
2009-06-22 06:59:07 51°13.663 2°55.961 19.5828 0.3336 1.920533 -0.129967
2009-06-22 06:59:12 51°13.663 2°55.961 19.5782 0.3336 1.920533 -0.129967
2009-06-22 06:59:17 51°13.663 2°55.961 19.5773 0.3336 1.920567 -0.129967
2009-06-22 06:59:22 51°13.663 2°55.961 19.5785 0.3336 1.920567 -0.129967
2009-06-22 06:59:27 51°13.663 2°55.961 19.5817 0.3336 1.920601 -0.129967
2009-06-22 06:59:32 51°13.663 2°55.961 19.5805 0.3336 1.920601 -0.129967
2009-06-22 06:59:37 51°13.663 2°55.96 19.5807 0.3336 1.920601 -0.129967
2009-06-22 06:59:41 51°13.663 2°55.961 19.5823 0.3336 1.920601 -0.129967
2009-06-22 06:59:47 51°13.663 2°55.96 19.5853 0.3336 1.920601 -0.129967
2009-06-22 06:59:52 51°13.663 2°55.961 19.5861 0.3336 1.920635 -0.129967
2009-06-22 06:59:57 51°13.663 2°55.96 19.5846 0.3336 1.920669 -0.129967
2009-06-22 07:00:02 51°13.663 2°55.961 19.5822 0.3336 1.920669 -0.129967
2009-06-22 07:00:07 51°13.663 2°55.96 19.5815 0.3336 1.920703 -0.129967
2009-06-22 07:00:12 51°13.663 2°55.96 19.5828 0.3336 1.920703 -0.129967
2009-06-22 07:00:17 51°13.663 2°55.96 19.5822 0.3336 1.920703 -0.129967
2009-06-22 07:00:21 51°13.662 2°55.96 19.5827 0.3336 1.920703 -0.129967
2009-06-22 07:00:27 51°13.662 2°55.96 19.5847 0.3336 1.920737 -0.129967
2009-06-22 07:00:32 51°13.662 2°55.96 19.5858 0.3336 1.920737 -0.129967
2009-06-22 07:00:37 51°13.662 2°55.96 19.5858 0.3336 1.920771 -0.129967
2009-06-22 07:00:42 51°13.662 2°55.961 19.5844 0.3336 1.920771 -0.129967
2009-06-22 07:00:47 51°13.662 2°55.96 19.5855 0.3336 1.920771 -0.129967
2009-06-22 07:00:52 51°13.662 2°55.96 19.5837 0.3336 1.920805 -0.129967
2009-06-22 07:00:56 51°13.662 2°55.96 19.5812 0.3336 1.920805 -0.129967
2009-06-22 07:01:01 51°13.662 2°55.96 19.5825 0.3336 1.920838 -0.129967
2009-06-22 07:01:07 51°13.662 2°55.96 19.583 0.3336 1.920838 -0.129967
2009-06-22 07:01:12 51°13.662 2°55.96 19.5829 0.3336 1.920838 -0.129967
2009-06-22 07:01:17 51°13.662 2°55.96 19.5832 0.3336 1.920872 -0.095143
2009-06-22 07:01:22 51°13.663 2°55.96 19.5862 0.3336 1.920872 -0.095143
2009-06-22 07:01:26 51°13.663 2°55.96 19.5874 0.3336 1.920872 -0.129967
2009-06-22 07:01:31 51°13.663 2°55.96 19.5866 0.3336 1.920906 -0.129967
2009-06-22 07:01:36 51°13.663 2°55.96 19.5815 0.333703 1.921534 -0.129967
2009-06-22 07:01:41 51°13.663 2°55.96 19.5826 0.333703 1.921534 -0.129967
2009-06-22 07:01:47 51°13.664 2°55.96 19.5835 0.333703 1.921568 -0.129967
2009-06-22 07:01:52 51°13.664 2°55.96 19.5852 0.333703 1.921568 -0.129967
2009-06-22 07:01:56 51°13.664 2°55.96 19.5898 0.333703 1.921602 -0.129967
2009-06-22 07:02:01 51°13.664 2°55.96 19.5938 0.333703 1.921602 -0.129967
2009-06-22 07:02:06 51°13.664 2°55.96 19.5934 0.333703 1.921636 -0.129967
2009-06-22 07:02:11 51°13.663 2°55.96 19.5918 0.333703 1.921636 -0.129967
2009-06-22 07:02:16 51°13.662 2°55.96 19.5883 0.333703 1.921636 -0.129967
2009-06-22 07:02:21 51°13.662 2°55.96 19.585 0.333703 1.92167 -0.129967
2009-06-22 07:02:27 51°13.663 2°55.96 19.5853 0.333703 1.92167 -0.129967
2009-06-22 07:02:32 51°13.663 2°55.96 19.5842 0.333703 1.92167 -0.129967
2009-06-22 07:02:37 51°13.663 2°55.96 19.5831 0.333703 1.921704 -0.129967
2009-06-22 07:02:41 51°13.663 2°55.96 19.5847 0.333703 1.921704 -0.129967
2009-06-22 07:02:47 51°13.663 2°55.96 19.5857 0.333703 1.921738 -0.129967
2009-06-22 07:02:52 51°13.663 2°55.96 19.5876 0.333703 1.921738 -0.129967
2009-06-22 07:02:57 51°13.663 2°55.96 19.5892 0.333703 1.921772 -0.095143
2009-06-22 07:03:01 51°13.663 2°55.96 19.5891 0.333703 1.921772 -0.129967
2009-06-22 07:03:07 51°13.663 2°55.96 19.5895 0.333703 1.921772 -0.129967
2009-06-22 07:03:12 51°13.663 2°55.96 19.5886 0.333703 1.921772 -0.129967
2009-06-22 07:03:17 51°13.662 2°55.96 19.5873 0.333703 1.921772 -0.129967
2009-06-22 07:03:21 51°13.662 2°55.96 19.59 0.333703 1.921806 -0.129967
2009-06-22 07:03:27 51°13.662 2°55.959 19.5898 0.333703 1.921806 -0.129967
2009-06-22 07:03:32 51°13.662 2°55.959 19.589 0.333703 1.921806 -0.129967
2009-06-22 07:03:37 51°13.662 2°55.959 19.59 0.333703 1.921874 -0.129967
2009-06-22 07:03:42 51°13.662 2°55.959 19.5905 0.333703 1.921874 -0.129967
2009-06-22 07:03:47 51°13.663 2°55.96 19.5916 0.333703 1.921874 -0.129967
2009-06-22 07:03:52 51°13.663 2°55.96 19.5914 0.333703 1.921908 -0.129967
2009-06-22 07:03:57 51°13.662 2°55.959 19.5921 0.333703 1.921908 -0.129967
2009-06-22 07:04:02 51°13.663 2°55.96 19.595 0.333703 1.921942 -0.129967
2009-06-22 07:04:07 51°13.662 2°55.959 19.5953 0.333703 1.921942 -0.129967
2009-06-22 07:04:12 51°13.662 2°55.959 19.596 0.333703 1.921942 -0.129967
2009-06-22 07:04:17 51°13.663 2°55.96 19.5928 0.333703 1.921976 -0.129967
2009-06-22 07:04:21 51°13.663 2°55.96 19.5911 0.3336 1.921348 -0.129967
2009-06-22 07:04:26 51°13.663 2°55.96 19.5912 0.3336 1.921348 -0.129967
2009-06-22 07:04:31 51°13.663 2°55.959 19.5911 0.3336 1.921382 -0.129967
2009-06-22 07:04:37 51°13.663 2°55.96 19.5905 0.3336 1.921382 -0.129967
2009-06-22 07:04:41 51°13.663 2°55.96 19.591 0.3336 1.921382 -0.129967
2009-06-22 07:04:46 51°13.663 2°55.96 19.5929 0.3336 1.921416 -0.129967
2009-06-22 07:04:52 51°13.663 2°55.96 19.5929 0.3336 1.921416 -0.129967
2009-06-22 07:04:57 51°13.663 2°55.96 19.5943 0.333703 1.922044 -0.129967
2009-06-22 07:05:01 51°13.663 2°55.96 19.5948 0.3336 1.92145 -0.095143
2009-06-22 07:05:07 51°13.663 2°55.96 19.5974 0.3336 1.92145 -0.129967
2009-06-22 07:05:12 51°13.663 2°55.959 19.5978 0.3336 1.92145 -0.129967
2009-06-22 07:05:17 51°13.663 2°55.96 19.597 0.3336 1.921484 -0.129967
2009-06-22 07:05:22 51°13.663 2°55.959 19.5946 0.3336 1.921484 -0.095143
2009-06-22 07:05:27 51°13.663 2°55.959 19.5936 0.3336 1.921518 -0.129967
2009-06-22 07:05:32 51°13.663 2°55.96 19.5921 0.3336 1.921518 -0.129967
2009-06-22 07:05:37 51°13.663 2°55.96 19.5918 0.3336 1.921552 -0.129967
2009-06-22 07:05:41 51°13.663 2°55.96 19.5936 0.3336 1.921552 -0.129967
2009-06-22 07:05:47 51°13.663 2°55.96 19.595 0.333703 1.922214 -0.129967
2009-06-22 07:05:52 51°13.663 2°55.96 19.5963 0.3336 1.92162 -0.129967
2009-06-22 07:05:57 51°13.663 2°55.96 19.5974 0.3336 1.92162 -0.129967
2009-06-22 07:06:01 51°13.663 2°55.96 19.5983 0.3336 1.921654 -0.129967
2009-06-22 07:06:07 51°13.663 2°55.96 19.5992 0.3336 1.921654 -0.129967
2009-06-22 07:06:12 51°13.663 2°55.96 19.6001 0.3336 1.921654 -0.129967
2009-06-22 07:06:17 51°13.662 2°55.96 19.6036 0.3336 1.921654 -0.129967
2009-06-22 07:06:22 51°13.663 2°55.96 19.6046 0.3336 1.921654 -0.095143
2009-06-22 07:06:27 51°13.663 2°55.96 19.6074 0.3336 1.921688 -0.129967
2009-06-22 07:06:32 51°13.663 2°55.96 19.6108 0.3336 1.921688 -0.129967
2009-06-22 07:06:37 51°13.663 2°55.96 19.6114 0.3336 1.921722 -0.129967
2009-06-22 07:06:42 51°13.662 2°55.96 19.6104 0.3336 1.921722 -0.129967
2009-06-22 07:06:47 51°13.662 2°55.96 19.6082 0.3336 1.921722 -0.129967
2009-06-22 07:06:52 51°13.662 2°55.96 19.6068 0.3336 1.921756 -0.129967
2009-06-22 07:06:57 51°13.663 2°55.96 19.6068 0.3336 1.921756 -0.129967
2009-06-22 07:07:02 51°13.662 2°55.96 19.6057 0.3336 1.92179 -0.129967
2009-06-22 07:07:07 51°13.662 2°55.96 19.6039 0.3336 1.92179 -0.129967
2009-06-22 07:07:12 51°13.662 2°55.96 19.6035 0.3336 1.92179 -0.129967
2009-06-22 07:07:17 51°13.662 2°55.96 19.6023 0.3336 1.921824 -0.129967
2009-06-22 07:07:21 51°13.662 2°55.96 19.6018 0.3336 1.921824 -0.129967
2009-06-22 07:07:27 51°13.662 2°55.96 19.6018 0.3336 1.921824 -0.129967
2009-06-22 07:07:32 51°13.662 2°55.96 19.6005 0.3336 1.921858 -0.129967
2009-06-22 07:07:37 51°13.662 2°55.96 19.6016 0.3336 1.921892 -0.129967
2009-06-22 07:07:41 51°13.662 2°55.96 19.6017 0.3336 1.921892 -0.129967
2009-06-22 07:07:47 51°13.662 2°55.96 19.6004 0.3336 1.921892 -0.129967
2009-06-22 07:07:52 51°13.662 2°55.96 19.6006 0.3336 1.921892 -0.129967
2009-06-22 07:07:57 51°13.662 2°55.96 19.5981 0.3336 1.921926 -0.129967
2009-06-22 07:08:02 51°13.662 2°55.959 19.5795 0.3336 1.921926 -0.129967
2009-06-22 07:08:07 51°13.661 2°55.959 19.5739 0.333703 1.922588 -0.129967
2009-06-22 07:08:12 51°13.661 2°55.958 19.5699 0.333703 1.922588 -0.129967
2009-06-22 07:08:17 51°13.662 2°55.956 19.5789 0.333806 1.923216 -0.129967
2009-06-22 07:08:21 51°13.662 2°55.953 19.5637 0.333909 1.923845 -0.129967
2009-06-22 07:08:26 51°13.663 2°55.95 19.5807 0.333909 1.923845 -0.129967
2009-06-22 07:08:31 51°13.664 2°55.946 19.5807 0.334115 1.925101 -0.095143
2009-06-22 07:08:37 51°13.666 2°55.94 19.5783 0.334115 1.925135 -0.129967
2009-06-22 07:08:42 51°13.668 2°55.934 19.5902 0.334115 1.925135 -0.129967
2009-06-22 07:08:47 51°13.67 2°55.928 19.5676 0.334115 1.925135 -0.129967
2009-06-22 07:08:52 51°13.672 2°55.92 19.5978 0.334115 1.925169 -0.129967
2009-06-22 07:08:57 51°13.675 2°55.913 19.5701 0.334218 1.925832 -0.129967
2009-06-22 07:09:02 51°13.678 2°55.905 19.5883 0.333909 1.923947 -0.129967
2009-06-22 07:09:07 51°13.68 2°55.897 19.6013 0.333909 1.924015 -0.129967
2009-06-22 07:09:12 51°13.682 2°55.89 19.6117 0.333909 1.924015 -0.129967
2009-06-22 07:09:17 51°13.684 2°55.883 19.6031 0.333806 1.923488 -0.129967
2009-06-22 07:09:22 51°13.685 2°55.877 19.6057 0.333703 1.92286 -0.129967
2009-06-22 07:09:27 51°13.687 2°55.87 19.5967 0.333806 1.923488 -0.129967
2009-06-22 07:09:32 51°13.688 2°55.864 19.6054 0.333703 1.922826 -0.129967
2009-06-22 07:09:37 51°13.689 2°55.858 19.5988 0.333703 1.922826 -0.129967
2009-06-22 07:09:41 51°13.69 2°55.852 19.6009 0.333703 1.922826 -0.129967
2009-06-22 07:09:46 51°13.691 2°55.846 19.5879 0.333806 1.92342 -0.129967
2009-06-22 07:09:51 51°13.692 2°55.84 19.5904 0.333806 1.923454 -0.129967
2009-06-22 07:09:56 51°13.693 2°55.833 19.5934 0.333806 1.923488 -0.129967
2009-06-22 07:10:00 51°13.694 2°55.829 19.5966 0.333806 1.923522 -0.129967
2009-06-22 07:10:05 51°13.694 2°55.822 19.5947 0.333806 1.923556 -0.129967
2009-06-22 07:10:11 51°13.695 2°55.814 19.5934 0.333806 1.923556 -0.129967
2009-06-22 07:10:16 51°13.696 2°55.808 19.5921 0.333806 1.923591 -0.129967
2009-06-22 07:10:21 51°13.696 2°55.801 19.594 0.333806 1.923591 -0.129967
2009-06-22 07:10:27 51°13.696 2°55.793 19.5978 0.333806 1.923591 -0.129967
2009-06-22 07:10:32 51°13.696 2°55.787 19.5987 0.333806 1.923591 -0.129967
2009-06-22 07:10:37 51°13.695 2°55.78 19.5979 0.333703 1.922962 -0.129967
2009-06-22 07:10:42 51°13.695 2°55.775 19.5994 0.333703 1.922962 -0.129967
2009-06-22 07:10:47 51°13.694 2°55.769 19.6007 0.333703 1.922962 -0.129967
2009-06-22 07:10:52 51°13.693 2°55.763 19.6003 0.333703 1.922962 -0.129967
2009-06-22 07:10:57 51°13.692 2°55.758 19.601 0.333703 1.922962 -0.129967
2009-06-22 07:11:01 51°13.692 2°55.755 19.6029 0.3336 1.922368 -0.129967
2009-06-22 07:11:07 51°13.692 2°55.752 19.6059 0.333497 1.921773 -0.129967
2009-06-22 07:11:11 51°13.692 2°55.751 19.608 0.333497 1.921773 -0.129967
2009-06-22 07:11:16 51°13.692 2°55.75 19.6112 0.333497 1.921807 -0.129967
2009-06-22 07:11:21 51°13.692 2°55.749 19.6126 0.333497 1.921875 -0.129967
2009-06-22 07:11:26 51°13.692 2°55.749 19.6104 0.333497 1.921909 -0.129967
2009-06-22 07:11:30 51°13.693 2°55.75 19.6142 0.333394 1.921281 -0.095143
2009-06-22 07:11:35 51°13.695 2°55.751 19.6119 0.333497 1.921943 -0.129967
2009-06-22 07:11:40 51°13.697 2°55.752 19.6117 0.333497 1.921943 -0.129967
2009-06-22 07:11:45 51°13.698 2°55.752 19.6066 0.333497 1.921977 -0.129967
2009-06-22 07:11:49 51°13.7 2°55.753 19.6068 0.333497 1.921977 -0.129967
2009-06-22 07:11:54 51°13.702 2°55.753 19.5785 0.333703 1.923234 -0.129967
2009-06-22 07:11:59 51°13.703 2°55.754 19.5772 0.333806 1.923795 -0.129967
2009-06-22 07:12:04 51°13.704 2°55.754 19.5927 0.334012 1.925018 -0.129967
2009-06-22 07:12:09 51°13.704 2°55.753 19.5713 0.334012 1.925018 -0.129967
2009-06-22 07:12:13 51°13.704 2°55.753 19.5736 0.334012 1.925018 -0.129967
2009-06-22 07:12:17 51°13.703 2°55.753 19.5908 0.334115 1.925646 -0.095143
2009-06-22 07:12:23 51°13.701 2°55.753 19.5972 0.334012 1.925018 -0.129967
2009-06-22 07:12:28 51°13.7 2°55.753 19.6043 0.333909 1.924389 -0.129967
2009-06-22 07:12:33 51°13.698 2°55.753 19.6126 0.333806 1.923761 -0.129967
2009-06-22 07:12:39 51°13.697 2°55.753 19.6117 0.333806 1.923761 -0.129967
2009-06-22 07:12:45 51°13.698 2°55.752 19.6196 0.3336 1.922504 -0.129967
2009-06-22 07:12:51 51°13.699 2°55.751 19.6212 0.333497 1.921977 -0.129967
2009-06-22 07:12:56 51°13.701 2°55.749 19.6224 0.333394 1.921417 -0.129967
2009-06-22 07:13:01 51°13.704 2°55.747 19.6182 0.333394 1.921451 -0.129967
2009-06-22 07:13:07 51°13.707 2°55.744 19.6121 0.3336 1.922674 -0.129967
2009-06-22 07:13:11 51°13.709 2°55.742 19.6001 0.3336 1.922674 -0.129967
2009-06-22 07:13:17 51°13.713 2°55.738 19.613 0.333497 1.921943 -0.129967
2009-06-22 07:13:21 51°13.715 2°55.736 19.6143 0.3336 1.922572 -0.129967
2009-06-22 07:13:26 51°13.719 2°55.732 19.6137 0.333497 1.921977 -0.129967
2009-06-22 07:13:30 51°13.722 2°55.728 19.6132 0.333497 1.921977 -0.129967
2009-06-22 07:13:36 51°13.727 2°55.723 19.6134 0.333497 1.922011 -0.129967
2009-06-22 07:13:40 51°13.731 2°55.719 19.6127 0.333497 1.922011 -0.129967
2009-06-22 07:13:45 51°13.737 2°55.713 19.6101 0.333497 1.922045 -0.129967
2009-06-22 07:13:49 51°13.741 2°55.709 19.6077 0.333497 1.922079 -0.129967
2009-06-22 07:13:54 51°13.747 2°55.703 19.599 0.333497 1.922113 -0.129967
2009-06-22 07:13:59 51°13.753 2°55.697 19.5914 0.3336 1.922776 -0.129967
2009-06-22 07:14:04 51°13.76 2°55.691 19.5909 0.3336 1.922776 -0.129967
2009-06-22 07:14:09 51°13.766 2°55.685 19.585 0.3336 1.922776 -0.129967
2009-06-22 07:14:13 51°13.771 2°55.68 19.5905 0.3336 1.92281 -0.129967
2009-06-22 07:14:18 51°13.778 2°55.674 19.595 0.333703 1.923473 -0.129967
2009-06-22 07:14:24 51°13.786 2°55.667 19.6029 0.3336 1.922878 -0.129967
2009-06-22 07:14:28 51°13.792 2°55.662 19.5949 0.333703 1.923541 -0.129967
2009-06-22 07:14:33 51°13.799 2°55.656 19.5985 0.333703 1.923541 -0.129967
2009-06-22 07:14:38 51°13.806 2°55.65 19.5963 0.333703 1.923541 -0.129967
2009-06-22 07:14:44 51°13.815 2°55.644 19.5882 0.333806 1.924203 -0.129967
2009-06-22 07:14:48 51°13.82 2°55.639 19.5741 0.333806 1.924203 -0.129967
2009-06-22 07:14:53 51°13.827 2°55.634 19.5702 0.333806 1.924203 -0.129967
2009-06-22 07:14:58 51°13.833 2°55.63 19.5449 0.333909 1.924798 -0.129967
2009-06-22 07:15:04 51°13.841 2°55.628 19.5474 0.334012 1.925358 -0.129967
2009-06-22 07:15:09 51°13.847 2°55.626 19.5733 0.334012 1.925358 -0.129967
2009-06-22 07:15:13 51°13.852 2°55.626 19.5797 0.334012 1.925392 -0.129967
2009-06-22 07:15:18 51°13.857 2°55.626 19.5805 0.334012 1.925461 -0.129967
2009-06-22 07:15:23 51°13.863 2°55.626 19.5869 0.334012 1.925529 -0.129967
2009-06-22 07:15:28 51°13.868 2°55.626 19.5954 0.334012 1.925563 -0.129967
2009-06-22 07:15:33 51°13.873 2°55.627 19.6118 0.334012 1.925631 -0.129967
2009-06-22 07:15:38 51°13.878 2°55.628 19.6108 0.334012 1.925631 -0.129967
2009-06-22 07:15:44 51°13.883 2°55.63 19.6102 0.333909 1.925036 -0.129967
2009-06-22 07:15:48 51°13.887 2°55.632 19.613 0.334012 1.925699 -0.129967
2009-06-22 07:15:53 51°13.891 2°55.633 19.615 0.334012 1.925767 -0.129967
2009-06-22 07:15:58 51°13.896 2°55.635 19.618 0.333909 1.925207 -0.129967
2009-06-22 07:16:04 51°13.9 2°55.636 19.6189 0.333909 1.925275 -0.129967
2009-06-22 07:16:08 51°13.903 2°55.637 19.6227 0.333909 1.925275 -0.129967
2009-06-22 07:16:13 51°13.908 2°55.638 19.6064 0.333909 1.925377 -0.129967
2009-06-22 07:16:18 51°13.911 2°55.638 19.6117 0.333909 1.925411 -0.129967
2009-06-22 07:16:24 51°13.916 2°55.639 19.6154 0.333909 1.925411 -0.129967
2009-06-22 07:16:28 51°13.919 2°55.639 19.6115 0.333909 1.925377 -0.129967
2009-06-22 07:16:33 51°13.922 2°55.639 19.6017 0.334012 1.925972 -0.129967
2009-06-22 07:16:38 51°13.925 2°55.639 19.6176 0.334012 1.925972 -0.129967
2009-06-22 07:16:44 51°13.928 2°55.639 19.6273 0.334115 1.926601 -0.129967
2009-06-22 07:16:48 51°13.93 2°55.639 19.6232 0.334012 1.926006 -0.129967
2009-06-22 07:16:53 51°13.932 2°55.638 19.6181 0.334012 1.926006 -0.129967
2009-06-22 07:16:58 51°13.934 2°55.638 19.6179 0.333909 1.925377 -0.129967
2009-06-22 07:17:04 51°13.936 2°55.637 19.6138 0.333909 1.925377 -0.129967
2009-06-22 07:17:08 51°13.937 2°55.637 19.6205 0.333909 1.925377 -0.129967
2009-06-22 07:17:13 51°13.939 2°55.636 19.6195 0.333909 1.925377 -0.129967
2009-06-22 07:17:18 51°13.94 2°55.636 19.6207 0.333909 1.925343 -0.129967
2009-06-22 07:17:24 51°13.942 2°55.635 19.619 0.333909 1.925377 -0.129967
2009-06-22 07:17:28 51°13.942 2°55.635 19.6209 0.333909 1.925377 -0.129967
2009-06-22 07:17:33 51°13.944 2°55.634 19.6144 0.334012 1.926006 -0.129967
2009-06-22 07:17:38 51°13.944 2°55.634 19.621 0.334012 1.926006 -0.129967
2009-06-22 07:17:44 51°13.945 2°55.633 19.624 0.334012 1.92604 -0.129967
2009-06-22 07:17:48 51°13.945 2°55.633 19.6251 0.334012 1.92604 -0.129967
2009-06-22 07:17:53 51°13.945 2°55.633 19.6206 0.334012 1.92604 -0.129967
2009-06-22 07:17:58 51°13.945 2°55.632 19.6211 0.334012 1.92604 -0.129967
2009-06-22 07:18:04 51°13.945 2°55.632 19.6248 0.333909 1.925411 -0.129967
2009-06-22 07:18:08 51°13.945 2°55.632 19.6183 0.333909 1.925411 -0.129967
2009-06-22 07:18:13 51°13.945 2°55.631 19.6232 0.333909 1.925446 -0.129967
2009-06-22 07:18:18 51°13.946 2°55.631 19.6276 0.333806 1.924817 -0.129967
2009-06-22 07:18:24 51°13.946 2°55.63 19.6299 0.333806 1.924817 -0.129967
2009-06-22 07:18:28 51°13.947 2°55.629 19.6371 0.333703 1.924188 -0.129967
2009-06-22 07:18:33 51°13.948 2°55.627 19.6329 0.333703 1.924188 -0.129967
2009-06-22 07:18:38 51°13.95 2°55.626 19.6381 0.333703 1.924188 -0.129967
2009-06-22 07:18:44 51°13.952 2°55.623 19.6372 0.3336 1.923593 -0.129967
2009-06-22 07:18:48 51°13.954 2°55.62 19.6338 0.3336 1.923627 -0.129967
2009-06-22 07:18:53 51°13.957 2°55.617 19.6331 0.3336 1.923627 -0.129967
2009-06-22 07:18:58 51°13.959 2°55.614 19.6331 0.3336 1.923661 -0.129967
2009-06-22 07:19:04 51°13.964 2°55.609 19.6323 0.333497 1.923067 -0.129967
2009-06-22 07:19:08 51°13.967 2°55.606 19.6308 0.333497 1.923067 -0.129967
2009-06-22 07:19:13 51°13.971 2°55.601 19.6312 0.3336 1.923729 -0.129967
2009-06-22 07:19:18 51°13.976 2°55.596 19.6347 0.333497 1.923101 -0.129967
2009-06-22 07:19:24 51°13.981 2°55.59 19.6373 0.333497 1.923135 -0.129967
2009-06-22 07:19:28 51°13.986 2°55.586 19.6376 0.333497 1.923169 -0.129967
2009-06-22 07:19:33 51°13.992 2°55.579 19.6363 0.333394 1.92254 -0.129967
2009-06-22 07:19:38 51°13.998 2°55.573 19.6341 0.333394 1.92254 -0.129967
2009-06-22 07:19:44 51°14.005 2°55.564 19.6348 0.333497 1.923169 -0.129967
2009-06-22 07:19:48 51°14.011 2°55.558 19.635 0.333394 1.92254 -0.129967
2009-06-22 07:19:53 51°14.018 2°55.549 19.626 0.333394 1.922574 -0.129967
2009-06-22 07:19:58 51°14.025 2°55.541 19.6323 0.333394 1.922608 -0.129967
2009-06-22 07:20:04 51°14.035 2°55.53 19.6254 0.333394 1.922574 -0.129967
2009-06-22 07:20:08 51°14.041 2°55.523 19.6349 0.333394 1.922574 -0.129967
2009-06-22 07:20:13 51°14.05 2°55.513 19.6296 0.333497 1.923237 -0.129967
2009-06-22 07:20:18 51°14.059 2°55.503 19.6314 0.333291 1.922013 -0.129967
2009-06-22 07:20:24 51°14.07 2°55.491 19.6283 0.333497 1.923271 -0.129967
2009-06-22 07:20:28 51°14.077 2°55.483 19.6345 0.333394 1.922642 -0.129967
2009-06-22 07:20:33 51°14.086 2°55.473 19.6274 0.333394 1.922642 -0.129967
2009-06-22 07:20:38 51°14.096 2°55.462 19.6233 0.333394 1.922642 -0.129967
2009-06-22 07:20:44 51°14.107 2°55.449 19.6111 0.333497 1.923305 -0.129967
2009-06-22 07:20:48 51°14.116 2°55.44 19.6259 0.333497 1.923305 -0.129967
2009-06-22 07:20:53 51°14.126 2°55.43 19.6301 0.333497 1.923339 -0.129967
2009-06-22 07:20:58 51°14.136 2°55.419 19.6255 0.333497 1.923339 -0.129967
2009-06-22 07:21:04 51°14.148 2°55.405 19.6337 0.333497 1.923373 -0.129967
2009-06-22 07:21:08 51°14.156 2°55.396 19.639 0.333497 1.923373 -0.129967
2009-06-22 07:21:13 51°14.166 2°55.384 19.6419 0.3336 1.924036 -0.129967
2009-06-22 07:21:18 51°14.176 2°55.373 19.6342 0.333497 1.923441 -0.129967
2009-06-22 07:21:24 51°14.188 2°55.358 19.6347 0.3336 1.924104 -0.129967
2009-06-22 07:21:28 51°14.196 2°55.348 19.6255 0.333497 1.923441 -0.129967
2009-06-22 07:21:33 51°14.205 2°55.335 19.6416 0.333497 1.923475 -0.129967
2009-06-22 07:21:38 51°14.215 2°55.322 19.6447 0.333497 1.923475 -0.129967
2009-06-22 07:21:44 51°14.226 2°55.305 19.6466 0.333497 1.923475 -0.129967
2009-06-22 07:21:48 51°14.233 2°55.295 19.6375 0.333497 1.923509 -0.129967
2009-06-22 07:21:53 51°14.242 2°55.281 19.645 0.333394 1.92288 -0.095143
2009-06-22 07:21:58 51°14.251 2°55.266 19.63 0.3336 1.924138 -0.129967
2009-06-22 07:22:04 51°14.261 2°55.248 19.6476 0.333703 1.924801 -0.129967
2009-06-22 07:22:08 51°14.268 2°55.236 19.6355 0.333703 1.924801 -0.129967
2009-06-22 07:22:13 51°14.277 2°55.221 19.6074 0.333497 1.923543 -0.129967
2009-06-22 07:22:18 51°14.286 2°55.206 19.6414 0.333703 1.924767 -0.129967
2009-06-22 07:22:24 51°14.296 2°55.188 19.6181 0.3336 1.924172 -0.129967
2009-06-22 07:22:28 51°14.303 2°55.176 19.6261 0.333497 1.923578 -0.129967
2009-06-22 07:22:33 51°14.311 2°55.159 19.6413 0.333703 1.92487 -0.129967
2009-06-22 07:22:38 51°14.319 2°55.143 19.6371 0.333703 1.92487 -0.129967
2009-06-22 07:22:44 51°14.329 2°55.123 19.6191 0.333394 1.923017 -0.129967
2009-06-22 07:22:48 51°14.335 2°55.11 19.6205 0.333497 1.923646 -0.129967
2009-06-22 07:22:53 51°14.343 2°55.092 19.6143 0.333497 1.923646 -0.129967
2009-06-22 07:22:58 51°14.351 2°55.075 19.6381 0.333497 1.923646 -0.129967
2009-06-22 07:23:04 51°14.36 2°55.054 19.6373 0.333703 1.924938 -0.129967
2009-06-22 07:23:08 51°14.366 2°55.04 19.6162 0.333703 1.924938 -0.129967
2009-06-22 07:23:13 51°14.373 2°55.021 19.6369 0.333394 1.923085 -0.129967
2009-06-22 07:23:18 51°14.38 2°55.001 19.64 0.333394 1.923119 -0.129967
2009-06-22 07:23:24 51°14.387 2°54.978 19.6175 0.333291 1.922524 -0.095143
2009-06-22 07:23:28 51°14.391 2°54.961 19.6443 0.333086 1.9213 -0.129967
2009-06-22 07:23:33 51°14.395 2°54.939 19.5953 0.333189 1.921997 -0.129967
2009-06-22 07:23:38 51°14.398 2°54.916 19.6048 0.333189 1.921997 -0.129967
2009-06-22 07:23:44 51°14.402 2°54.887 19.6112 0.332983 1.920773 -0.129967
2009-06-22 07:23:48 51°14.403 2°54.868 19.6068 0.332983 1.920739 -0.129967
2009-06-22 07:23:53 51°14.404 2°54.843 19.6229 0.333189 1.921963 -0.129967
2009-06-22 07:23:58 51°14.405 2°54.817 19.629 0.332983 1.920671 -0.129967
2009-06-22 07:24:04 51°14.404 2°54.786 19.6217 0.332983 1.920705 -0.129967
2009-06-22 07:24:08 51°14.403 2°54.765 19.6166 0.332983 1.920705 -0.129967
2009-06-22 07:24:13 51°14.401 2°54.74 19.6047 0.333189 1.922031 -0.129967
2009-06-22 07:24:18 51°14.398 2°54.713 19.5907 0.333086 1.921402 -0.129967
2009-06-22 07:24:24 51°14.393 2°54.682 19.5474 0.333189 1.922031 -0.129967
2009-06-22 07:24:28 51°14.39 2°54.662 19.5799 0.332983 1.920705 -0.129967
2009-06-22 07:24:33 51°14.387 2°54.635 19.572 0.333394 1.923187 -0.129967
2009-06-22 07:24:38 51°14.383 2°54.609 19.5928 0.333394 1.923187 -0.129967
2009-06-22 07:24:44 51°14.38 2°54.576 19.5963 0.332983 1.920637 -0.129967
2009-06-22 07:24:48 51°14.377 2°54.555 19.6094 0.333394 1.923153 -0.129967
2009-06-22 07:24:53 51°14.375 2°54.528 19.6098 0.333291 1.922524 -0.129967
2009-06-22 07:24:58 51°14.372 2°54.501 19.5872 0.333394 1.923255 -0.129967
2009-06-22 07:25:04 51°14.367 2°54.469 19.6125 0.333291 1.922728 -0.129967
2009-06-22 07:25:08 51°14.365 2°54.447 19.5929 0.333291 1.922728 -0.129967
2009-06-22 07:25:13 51°14.361 2°54.42 19.6084 0.333291 1.922762 -0.129967
2009-06-22 07:25:18 51°14.357 2°54.394 19.6184 0.333394 1.923392 -0.129967
2009-06-22 07:25:24 51°14.351 2°54.362 19.5825 0.333497 1.924089 -0.129967
2009-06-22 07:25:28 51°14.347 2°54.341 19.59 0.333189 1.922201 -0.129967
2009-06-22 07:25:33 51°14.342 2°54.314 19.5858 0.333394 1.92346 -0.129967
2009-06-22 07:25:38 51°14.336 2°54.288 19.6116 0.333394 1.92346 -0.129967
2009-06-22 07:25:44 51°14.328 2°54.257 19.6171 0.333189 1.922201 -0.129967
2009-06-22 07:25:48 51°14.323 2°54.236 19.5928 0.333291 1.922831 -0.129967
2009-06-22 07:25:53 51°14.316 2°54.209 19.572 0.333394 1.923528 -0.129967
2009-06-22 07:25:58 51°14.31 2°54.184 19.604 0.333291 1.922899 -0.129967
2009-06-22 07:26:04 51°14.301 2°54.153 19.583 0.333394 1.923494 -0.129967
2009-06-22 07:26:08 51°14.295 2°54.132 19.6054 0.333394 1.923494 -0.129967
2009-06-22 07:26:13 51°14.289 2°54.106 19.5826 0.333497 1.924157 -0.129967
2009-06-22 07:26:18 51°14.281 2°54.08 19.5946 0.333497 1.924123 -0.129967
2009-06-22 07:26:24 51°14.272 2°54.05 19.6093 0.333497 1.924191 -0.129967
2009-06-22 07:26:28 51°14.266 2°54.03 19.6106 0.333497 1.924225 -0.129967
2009-06-22 07:26:33 51°14.259 2°54.004 19.6001 0.333394 1.92363 -0.129967
2009-06-22 07:26:38 51°14.251 2°53.979 19.6042 0.333394 1.92363 -0.129967
2009-06-22 07:26:44 51°14.241 2°53.948 19.6122 0.333497 1.924225 -0.129967
2009-06-22 07:26:48 51°14.235 2°53.928 19.6016 0.333497 1.924259 -0.129967
2009-06-22 07:26:53 51°14.227 2°53.902 19.5838 0.3336 1.924923 -0.129967
2009-06-22 07:26:58 51°14.22 2°53.877 19.6096 0.333394 1.923698 -0.129967
2009-06-22 07:27:04 51°14.21 2°53.846 19.5937 0.333394 1.923698 -0.129967
2009-06-22 07:27:08 51°14.204 2°53.826 19.6144 0.333394 1.923698 -0.129967
2009-06-22 07:27:13 51°14.196 2°53.8 19.6148 0.333497 1.924293 -0.129967
2009-06-22 07:27:18 51°14.188 2°53.775 19.6005 0.333497 1.924362 -0.129967
2009-06-22 07:27:24 51°14.179 2°53.744 19.6099 0.333497 1.924362 -0.129967
2009-06-22 07:27:28 51°14.173 2°53.724 19.6193 0.333497 1.924396 -0.129967
2009-06-22 07:27:33 51°14.166 2°53.698 19.6122 0.333497 1.92443 -0.129967
2009-06-22 07:27:38 51°14.158 2°53.673 19.5844 0.333497 1.92443 -0.129967
2009-06-22 07:27:44 51°14.148 2°53.642 19.5947 0.333291 1.923171 -0.129967
2009-06-22 07:27:48 51°14.142 2°53.622 19.5989 0.333394 1.923801 -0.129967
2009-06-22 07:27:53 51°14.135 2°53.597 19.6086 0.333497 1.92443 -0.129967
2009-06-22 07:27:58 51°14.127 2°53.571 19.6125 0.333497 1.924464 -0.129967
2009-06-22 07:28:04 51°14.118 2°53.541 19.5861 0.333291 1.92324 -0.129967
2009-06-22 07:28:08 51°14.112 2°53.521 19.6138 0.333291 1.92324 -0.129967
2009-06-22 07:28:13 51°14.105 2°53.495 19.594 0.333291 1.923274 -0.129967
2009-06-22 07:28:18 51°14.098 2°53.47 19.588 0.333291 1.923274 -0.129967
2009-06-22 07:28:24 51°14.089 2°53.439 19.5976 0.333497 1.924532 -0.129967
2009-06-22 07:28:28 51°14.084 2°53.419 19.6079 0.3336 1.925196 -0.129967
2009-06-22 07:28:33 51°14.076 2°53.393 19.6306 0.333394 1.923971 -0.129967
2009-06-22 07:28:38 51°14.069 2°53.368 19.5978 0.333394 1.923971 -0.129967
2009-06-22 07:28:44 51°14.059 2°53.338 19.6013 0.333394 1.924005 -0.129967
2009-06-22 07:28:48 51°14.053 2°53.318 19.6023 0.333291 1.92341 -0.129967
2009-06-22 07:28:53 51°14.045 2°53.293 19.6064 0.333291 1.92341 -0.129967
2009-06-22 07:28:58 51°14.037 2°53.268 19.6157 0.333394 1.924039 -0.129967
2009-06-22 07:29:04 51°14.028 2°53.238 19.586 0.333291 1.923444 -0.129967
2009-06-22 07:29:08 51°14.021 2°53.218 19.6203 0.333291 1.923444 -0.129967
2009-06-22 07:29:13 51°14.013 2°53.193 19.5808 0.333497 1.924703 -0.129967
2009-06-22 07:29:18 51°14.005 2°53.168 19.6157 0.333189 1.922849 -0.129967
2009-06-22 07:29:24 51°13.995 2°53.137 19.5998 0.333497 1.924737 -0.129967
2009-06-22 07:29:28 51°13.989 2°53.117 19.6152 0.333497 1.924737 -0.129967
2009-06-22 07:29:33 51°13.981 2°53.091 19.5969 0.333497 1.924771 -0.129967
2009-06-22 07:29:38 51°13.972 2°53.066 19.6171 0.333497 1.924771 -0.129967
2009-06-22 07:29:44 51°13.962 2°53.036 19.6018 0.333394 1.924176 -0.129967
2009-06-22 07:29:48 51°13.955 2°53.016 19.6211 0.333394 1.92421 -0.129967
2009-06-22 07:29:53 51°13.947 2°52.992 19.6067 0.333394 1.92421 -0.129967
2009-06-22 07:29:58 51°13.938 2°52.967 19.6054 0.333394 1.924176 -0.129967
2009-06-22 07:30:04 51°13.927 2°52.938 19.6183 0.333394 1.924176 -0.129967
2009-06-22 07:30:08 51°13.92 2°52.918 19.6089 0.333394 1.924176 -0.129967
2009-06-22 07:30:13 51°13.911 2°52.893 19.6078 0.333497 1.924839 -0.129967
2009-06-22 07:30:18 51°13.902 2°52.869 19.6106 0.333394 1.924244 -0.129967
2009-06-22 07:30:24 51°13.891 2°52.839 19.5854 0.3336 1.925469 -0.129967
2009-06-22 07:30:28 51°13.883 2°52.82 19.6251 0.333394 1.924244 -0.129967
2009-06-22 07:30:33 51°13.875 2°52.795 19.6158 0.333703 1.926166 -0.129967
2009-06-22 07:30:38 51°13.865 2°52.771 19.615 0.333703 1.926166 -0.129967
2009-06-22 07:30:44 51°13.854 2°52.741 19.616 0.333497 1.924942 -0.129967
2009-06-22 07:30:48 51°13.847 2°52.722 19.6155 0.333497 1.924942 -0.164791
2009-06-22 07:30:53 51°13.838 2°52.697 19.622 0.333394 1.924312 -0.129967
2009-06-22 07:30:58 51°13.829 2°52.674 19.6171 0.333086 1.922458 -0.164791
2009-06-22 07:31:04 51°13.818 2°52.644 19.597 0.333497 1.92501 -0.129967
2009-06-22 07:31:08 51°13.81 2°52.626 19.6183 0.333497 1.92501 -0.129967
2009-06-22 07:31:13 51°13.8 2°52.602 19.6161 0.333291 1.923751 -0.129967
2009-06-22 07:31:18 51°13.79 2°52.578 19.627 0.333497 1.92501 -0.129967
2009-06-22 07:31:24 51°13.779 2°52.549 19.6083 0.333394 1.924415 -0.129967
2009-06-22 07:31:28 51°13.772 2°52.53 19.6221 0.333291 1.923785 -0.129967
2009-06-22 07:31:33 51°13.762 2°52.507 19.6165 0.333497 1.925078 -0.129967
2009-06-22 07:31:38 51°13.753 2°52.482 19.6032 0.333497 1.925078 -0.129967
2009-06-22 07:31:44 51°13.742 2°52.453 19.6273 0.333394 1.924415 -0.129967
2009-06-22 07:31:48 51°13.734 2°52.434 19.6004 0.333703 1.926371 -0.129967
2009-06-22 07:31:53 51°13.725 2°52.41 19.6214 0.333291 1.923888 -0.129967
2009-06-22 07:31:58 51°13.716 2°52.385 19.6014 0.3336 1.925776 -0.129967
2009-06-22 07:32:04 51°13.706 2°52.355 19.6155 0.3336 1.92581 -0.129967
2009-06-22 07:32:08 51°13.698 2°52.335 19.6297 0.3336 1.92581 -0.129967
2009-06-22 07:32:13 51°13.69 2°52.31 19.6246 0.333497 1.925181 -0.164791
2009-06-22 07:32:18 51°13.682 2°52.285 19.6199 0.3336 1.925844 -0.129967
2009-06-22 07:32:24 51°13.672 2°52.255 19.5994 0.333497 1.925283 -0.129967
2009-06-22 07:32:28 51°13.665 2°52.235 19.623 0.333497 1.925317 -0.129967
2009-06-22 07:32:33 51°13.656 2°52.21 19.6193 0.333497 1.925317 -0.164791
2009-06-22 07:32:38 51°13.647 2°52.185 19.6337 0.333497 1.925317 -0.164791
2009-06-22 07:32:44 51°13.637 2°52.155 19.5971 0.333394 1.924722 -0.129967
2009-06-22 07:32:48 51°13.63 2°52.135 19.6377 0.333394 1.924756 -0.164791
2009-06-22 07:32:53 51°13.623 2°52.11 19.602 0.333703 1.926679 -0.164791
2009-06-22 07:32:58 51°13.614 2°52.085 19.6326 0.333394 1.924756 -0.129967
2009-06-22 07:33:04 51°13.604 2°52.055 19.6144 0.333497 1.925386 -0.129967
2009-06-22 07:33:08 51°13.597 2°52.035 19.6265 0.333497 1.925386 -0.129967
2009-06-22 07:33:13 51°13.588 2°52.01 19.6147 0.333292 1.924126 -0.129967
2009-06-22 07:33:18 51°13.579 2°51.985 19.6423 0.333394 1.924722 -0.164791
2009-06-22 07:33:24 51°13.569 2°51.955 19.6127 0.333394 1.924756 -0.129967
2009-06-22 07:33:28 51°13.562 2°51.935 19.6311 0.333394 1.92479 -0.129967
2009-06-22 07:33:33 51°13.554 2°51.91 19.6358 0.3336 1.926049 -0.129967
2009-06-22 07:33:38 51°13.545 2°51.885 19.6131 0.3336 1.926049 -0.129967
2009-06-22 07:33:44 51°13.535 2°51.855 19.6431 0.333497 1.92542 -0.129967
2009-06-22 07:33:48 51°13.528 2°51.835 19.6101 0.3336 1.926083 -0.129967
2009-06-22 07:33:53 51°13.519 2°51.81 19.6405 0.333394 1.924858 -0.164791
2009-06-22 07:33:58 51°13.511 2°51.785 19.6374 0.333497 1.925522 -0.129967
2009-06-22 07:34:04 51°13.5 2°51.755 19.6301 0.333497 1.925522 -0.164791
2009-06-22 07:34:08 51°13.493 2°51.735 19.6371 0.333497 1.925522 -0.164791
2009-06-22 07:34:13 51°13.485 2°51.71 19.6438 0.333497 1.925556 -0.129967
2009-06-22 07:34:18 51°13.476 2°51.686 19.6445 0.333497 1.925556 -0.129967
2009-06-22 07:34:24 51°13.466 2°51.655 19.6288 0.333292 1.924331 -0.129967
2009-06-22 07:34:28 51°13.459 2°51.636 19.623 0.333497 1.925591 -0.164791
2009-06-22 07:34:33 51°13.451 2°51.612 19.6109 0.333806 1.92748 -0.129967
2009-06-22 07:34:38 51°13.444 2°51.59 19.6286 0.333806 1.92748 -0.129967
2009-06-22 07:34:44 51°13.436 2°51.565 19.6333 0.334115 1.929403 -0.129967
2009-06-22 07:34:48 51°13.432 2°51.549 19.63 0.334321 1.930697 -0.164791
2009-06-22 07:34:53 51°13.426 2°51.531 19.6273 0.334527 1.931956 -0.129967
2009-06-22 07:34:58 51°13.422 2°51.513 19.6314 0.33463 1.932586 -0.164791
2009-06-22 07:35:04 51°13.416 2°51.494 19.6429 0.334527 1.93199 -0.164791
2009-06-22 07:35:08 51°13.414 2°51.482 19.6463 0.334527 1.93199 -0.164791
2009-06-22 07:35:13 51°13.41 2°51.468 19.6486 0.334527 1.932025 -0.129967
2009-06-22 07:35:18 51°13.406 2°51.456 19.6458 0.334321 1.930868 -0.164791
2009-06-22 07:35:24 51°13.402 2°51.443 19.6371 0.334218 1.930375 -0.129967
2009-06-22 07:35:28 51°13.399 2°51.434 19.6382 0.334218 1.930375 -0.164791
2009-06-22 07:35:33 51°13.396 2°51.425 19.6458 0.334424 1.931566 -0.129967
2009-06-22 07:35:38 51°13.394 2°51.416 19.64 0.334424 1.931566 -0.129967
2009-06-22 07:35:44 51°13.391 2°51.406 19.6443 0.334424 1.931498 -0.164791
2009-06-22 07:35:49 51°13.389 2°51.398 19.6346 0.334424 1.931463 -0.129967
2009-06-22 07:35:53 51°13.388 2°51.393 19.6445 0.334218 1.930204 -0.129967
2009-06-22 07:35:58 51°13.386 2°51.386 19.6406 0.334218 1.930238 -0.129967
2009-06-22 07:36:04 51°13.385 2°51.379 19.654 0.334012 1.929013 -0.129967
2009-06-22 07:36:08 51°13.384 2°51.375 19.6461 0.334012 1.929013 -0.129967
2009-06-22 07:36:13 51°13.383 2°51.371 19.6504 0.334115 1.929677 -0.129967
2009-06-22 07:36:18 51°13.382 2°51.367 19.6399 0.334218 1.930375 -0.129967
2009-06-22 07:36:24 51°13.38 2°51.363 19.653 0.334321 1.931073 -0.129967
2009-06-22 07:36:28 51°13.38 2°51.36 19.6498 0.334218 1.930478 -0.164791
2009-06-22 07:36:33 51°13.378 2°51.357 19.654 0.334115 1.929882 -0.164791
2009-06-22 07:36:38 51°13.377 2°51.355 19.6587 0.334115 1.929882 -0.164791
2009-06-22 07:36:44 51°13.376 2°51.351 19.6599 0.334218 1.930546 -0.164791
2009-06-22 07:36:48 51°13.375 2°51.349 19.6602 0.334012 1.929389 -0.164791
2009-06-22 07:36:53 51°13.374 2°51.346 19.6561 0.333703 1.927568 -0.129967
2009-06-22 07:36:58 51°13.373 2°51.343 19.6591 0.333909 1.928828 -0.129967
2009-06-22 07:37:04 51°13.372 2°51.34 19.661 0.333806 1.928198 -0.164791
2009-06-22 07:37:08 51°13.371 2°51.338 19.6552 0.333806 1.928198 -0.164791
2009-06-22 07:37:13 51°13.37 2°51.335 19.6683 0.333909 1.928828 -0.129967
2009-06-22 07:37:18 51°13.369 2°51.333 19.6575 0.333909 1.928862 -0.164791
2009-06-22 07:37:24 51°13.368 2°51.329 19.6587 0.333806 1.928232 -0.129967
2009-06-22 07:37:28 51°13.367 2°51.327 19.6574 0.333703 1.927602 -0.164791
2009-06-22 07:37:33 51°13.366 2°51.324 19.6674 0.333806 1.928232 -0.129967
2009-06-22 07:37:38 51°13.365 2°51.321 19.6559 0.333806 1.928232 -0.129967
2009-06-22 07:37:44 51°13.364 2°51.318 19.664 0.333909 1.928862 -0.129967
2009-06-22 07:37:48 51°13.363 2°51.316 19.6609 0.334218 1.930786 -0.129967
2009-06-22 07:37:53 51°13.362 2°51.313 19.6614 0.334012 1.929526 -0.129967
2009-06-22 07:37:58 51°13.361 2°51.31 19.6586 0.333806 1.928301 -0.164791
2009-06-22 07:38:04 51°13.36 2°51.307 19.6636 0.3336 1.927041 -0.164791
2009-06-22 07:38:08 51°13.359 2°51.305 19.6595 0.3336 1.927041 -0.164791
2009-06-22 07:38:13 51°13.358 2°51.302 19.6636 0.3336 1.927041 -0.129967
2009-06-22 07:38:18 51°13.357 2°51.299 19.6639 0.334012 1.929595 -0.164791
2009-06-22 07:38:24 51°13.356 2°51.295 19.6678 0.3336 1.927075 -0.129967
2009-06-22 07:38:28 51°13.355 2°51.293 19.6683 0.333806 1.928369 -0.129967
2009-06-22 07:38:33 51°13.354 2°51.29 19.673 0.334012 1.929629 -0.129967
2009-06-22 07:38:38 51°13.353 2°51.288 19.6733 0.334012 1.929629 -0.129967
2009-06-22 07:38:44 51°13.352 2°51.284 19.6761 0.333909 1.928999 -0.164791
2009-06-22 07:38:48 51°13.351 2°51.282 19.6752 0.333909 1.929033 -0.164791
2009-06-22 07:38:53 51°13.35 2°51.279 19.6782 0.333703 1.927773 -0.129967
2009-06-22 07:38:58 51°13.349 2°51.275 19.6831 0.333497 1.926547 -0.164791
2009-06-22 07:39:04 51°13.347 2°51.269 19.6813 0.3336 1.927246 -0.129967
2009-06-22 07:39:08 51°13.347 2°51.265 19.6891 0.3336 1.927246 -0.129967
2009-06-22 07:39:13 51°13.346 2°51.258 19.687 0.3336 1.927349 -0.129967
2009-06-22 07:39:18 51°13.344 2°51.252 19.6826 0.333497 1.926787 -0.164791
2009-06-22 07:39:24 51°13.342 2°51.243 19.6885 0.333394 1.926191 -0.129967
2009-06-22 07:39:28 51°13.34 2°51.237 19.6794 0.333189 1.924931 -0.129967
2009-06-22 07:39:33 51°13.338 2°51.228 19.6857 0.333189 1.924931 -0.164791
2009-06-22 07:39:38 51°13.335 2°51.22 19.6949 0.333189 1.924931 -0.164791
2009-06-22 07:39:44 51°13.331 2°51.208 19.6816 0.333189 1.924897 -0.129967
2009-06-22 07:39:48 51°13.328 2°51.2 19.6884 0.333086 1.924233 -0.129967
2009-06-22 07:39:53 51°13.323 2°51.188 19.6751 0.332983 1.923603 -0.129967
2009-06-22 07:39:58 51°13.318 2°51.174 19.6758 0.333086 1.924164 -0.129967
2009-06-22 07:40:04 51°13.312 2°51.158 19.6926 0.333086 1.924164 -0.164791
2009-06-22 07:40:08 51°13.307 2°51.146 19.6966 0.333086 1.924164 -0.164791
2009-06-22 07:40:13 51°13.301 2°51.13 19.6804 0.333292 1.925458 -0.129967
2009-06-22 07:40:18 51°13.295 2°51.113 19.6798 0.333292 1.925458 -0.164791
2009-06-22 07:40:24 51°13.287 2°51.09 19.6759 0.333189 1.924863 -0.129967
2009-06-22 07:40:28 51°13.281 2°51.074 19.6974 0.332983 1.923603 -0.129967
2009-06-22 07:40:33 51°13.274 2°51.053 19.6906 0.332983 1.923671 -0.164791
2009-06-22 07:40:38 51°13.266 2°51.032 19.6917 0.332983 1.923671 -0.164791
2009-06-22 07:40:44 51°13.257 2°51.005 19.6932 0.332983 1.923705 -0.129967
2009-06-22 07:40:48 51°13.251 2°50.987 19.6627 0.333086 1.924369 -0.129967
2009-06-22 07:40:53 51°13.242 2°50.964 19.6948 0.333189 1.924999 -0.129967
2009-06-22 07:40:58 51°13.234 2°50.94 19.6556 0.333189 1.925102 -0.129967
2009-06-22 07:41:04 51°13.224 2°50.912 19.6906 0.333189 1.925102 -0.129967
2009-06-22 07:41:08 51°13.217 2°50.892 19.6761 0.333189 1.925102 -0.129967
2009-06-22 07:41:13 51°13.208 2°50.868 19.6971 0.333189 1.925102 -0.164791
2009-06-22 07:41:18 51°13.2 2°50.844 19.684 0.333292 1.925732 -0.164791
2009-06-22 07:41:24 51°13.19 2°50.815 19.6971 0.333189 1.925136 -0.129967
2009-06-22 07:41:28 51°13.183 2°50.796 19.6655 0.333394 1.92643 -0.164791
2009-06-22 07:41:33 51°13.173 2°50.772 19.6935 0.333189 1.92517 -0.129967
2009-06-22 07:41:38 51°13.165 2°50.747 19.6712 0.333189 1.92517 -0.129967
2009-06-22 07:41:44 51°13.155 2°50.718 19.6881 0.333292 1.925766 -0.129967
2009-06-22 07:41:48 51°13.148 2°50.699 19.6919 0.333394 1.92643 -0.129967
2009-06-22 07:41:53 51°13.139 2°50.674 19.6898 0.333292 1.9258 -0.164791
2009-06-22 07:41:58 51°13.13 2°50.65 19.6975 0.333497 1.927095 -0.129967
2009-06-22 07:42:04 51°13.12 2°50.621 19.6895 0.333394 1.926499 -0.129967
2009-06-22 07:42:08 51°13.113 2°50.601 19.7 0.333394 1.926499 -0.129967
2009-06-22 07:42:13 51°13.104 2°50.576 19.6898 0.3336 1.927759 -0.164791
2009-06-22 07:42:18 51°13.095 2°50.552 19.7114 0.333189 1.925204 -0.164791
2009-06-22 07:42:24 51°13.085 2°50.523 19.6785 0.333394 1.926533 -0.129967
2009-06-22 07:42:28 51°13.077 2°50.503 19.7118 0.333189 1.925307 -0.129967
2009-06-22 07:42:33 51°13.069 2°50.479 19.6629 0.333394 1.926567 -0.164791
2009-06-22 07:42:38 51°13.06 2°50.455 19.7011 0.333394 1.926567 -0.164791
2009-06-22 07:42:44 51°13.049 2°50.426 19.6942 0.333292 1.925937 -0.129967
2009-06-22 07:42:48 51°13.042 2°50.406 19.7056 0.333086 1.924677 -0.164791
2009-06-22 07:42:53 51°13.034 2°50.382 19.6968 0.333292 1.925937 -0.129967
2009-06-22 07:42:58 51°13.025 2°50.358 19.7047 0.333086 1.924711 -0.129967
2009-06-22 07:43:04 51°13.014 2°50.328 19.7056 0.333395 1.926636 -0.129967
2009-06-22 07:43:08 51°13.007 2°50.309 19.6891 0.333395 1.926636 -0.129967
2009-06-22 07:43:13 51°12.997 2°50.285 19.7129 0.333189 1.925341 -0.164791
2009-06-22 07:43:18 51°12.988 2°50.261 19.6941 0.333292 1.926006 -0.129967
2009-06-22 07:43:24 51°12.977 2°50.232 19.7105 0.333292 1.926006 -0.129967
2009-06-22 07:43:28 51°12.97 2°50.213 19.7092 0.333189 1.925375 -0.164791
2009-06-22 07:43:33 51°12.961 2°50.189 19.6888 0.333292 1.92604 -0.129967
2009-06-22 07:43:39 51°12.95 2°50.16 19.711 0.333292 1.92604 -0.129967
2009-06-22 07:43:44 51°12.941 2°50.135 19.7031 0.333086 1.924814 -0.164791
2009-06-22 07:43:48 51°12.934 2°50.116 19.7166 0.333292 1.926074 -0.164791
2009-06-22 07:43:53 51°12.925 2°50.092 19.6902 0.333395 1.926738 -0.164791
2009-06-22 07:43:58 51°12.916 2°50.067 19.7189 0.333292 1.926142 -0.164791
2009-06-22 07:44:04 51°12.905 2°50.038 19.7049 0.333395 1.926807 -0.164791
2009-06-22 07:44:08 51°12.898 2°50.019 19.7185 0.333395 1.926807 -0.164791
2009-06-22 07:44:13 51°12.889 2°49.994 19.7019 0.333395 1.926841 -0.129967
2009-06-22 07:44:18 51°12.881 2°49.97 19.7155 0.333189 1.925512 -0.129967
2009-06-22 07:44:24 51°12.87 2°49.94 19.6951 0.333497 1.927471 -0.164791
2009-06-22 07:44:28 51°12.863 2°49.921 19.7098 0.333189 1.925615 -0.129967
2009-06-22 07:44:33 51°12.854 2°49.896 19.7104 0.333292 1.926245 -0.129967
2009-06-22 07:44:38 51°12.845 2°49.871 19.6982 0.333292 1.926245 -0.129967
2009-06-22 07:44:44 51°12.834 2°49.842 19.7285 0.333189 1.925615 -0.129967
2009-06-22 07:44:48 51°12.828 2°49.822 19.6919 0.333497 1.92754 -0.129967
2009-06-22 07:44:53 51°12.818 2°49.798 19.7256 0.333189 1.925615 -0.164791
2009-06-22 07:44:58 51°12.81 2°49.773 19.7229 0.333497 1.92754 -0.129967
2009-06-22 07:45:04 51°12.799 2°49.743 19.7239 0.333189 1.925683 -0.164791
2009-06-22 07:45:08 51°12.793 2°49.723 19.7216 0.333189 1.925683 -0.164791
2009-06-22 07:45:13 51°12.784 2°49.699 19.721 0.333292 1.926313 -0.129967
2009-06-22 07:45:18 51°12.775 2°49.674 19.7293 0.333086 1.925087 -0.164791
2009-06-22 07:45:24 51°12.764 2°49.644 19.7212 0.333189 1.925752 -0.129967
2009-06-22 07:45:28 51°12.757 2°49.625 19.7108 0.333292 1.926382 -0.164791
2009-06-22 07:45:33 51°12.748 2°49.6 19.7235 0.333292 1.926382 -0.164791
2009-06-22 07:45:38 51°12.74 2°49.576 19.7294 0.333292 1.926382 -0.164791
2009-06-22 07:45:44 51°12.729 2°49.545 19.7296 0.333292 1.926382 -0.129967
2009-06-22 07:45:48 51°12.722 2°49.526 19.7189 0.333292 1.926416 -0.129967
2009-06-22 07:45:53 51°12.713 2°49.501 19.7388 0.333189 1.92582 -0.164791
2009-06-22 07:45:59 51°12.703 2°49.472 19.4353 0.335968 1.942912 -0.060319
2009-06-22 07:46:04 51°12.694 2°49.447 19.0649 0.308996 1.797892 0.810283
2009-06-22 07:46:08 51°12.687 2°49.427 18.7241 0.308996 1.797892 0.810283
2009-06-22 07:46:13 51°12.678 2°49.403 18.4677 0.52605 3.153247 0.740634
2009-06-22 07:46:18 51°12.67 2°49.377 18.247 0.686112 4.186575 1.088875
2009-06-22 07:46:24 51°12.66 2°49.348 18.1536 1.893686 12.601544 1.750532
2009-06-22 07:46:28 51°12.653 2°49.328 18.1182 2.181954 14.770799 1.924652
2009-06-22 07:46:33 51°12.644 2°49.303 18.0843 2.586705 17.90318 2.307717
2009-06-22 07:46:38 51°12.635 2°49.278 18.0045 2.586705 17.90318 2.307717
2009-06-22 07:46:44 51°12.626 2°49.248 17.9608 3.570547 25.663534 3.10867
2009-06-22 07:46:48 51°12.619 2°49.228 17.9046 3.869887 28.233006 3.770327
2009-06-22 07:46:53 51°12.611 2°49.203 17.8767 3.952221 29.063748 4.083744
2009-06-22 07:46:58 51°12.602 2°49.178 17.8584 3.964979 29.308136 4.153392
2009-06-22 07:47:04 51°12.592 2°49.148 17.8311 3.965914 29.408688 4.118568
2009-06-22 07:47:09 51°12.583 2°49.123 17.7852 3.965914 29.408688 4.118568
2009-06-22 07:47:13 51°12.576 2°49.103 17.7909 3.996716 29.736148 4.04892
2009-06-22 07:47:18 51°12.568 2°49.078 17.7718 3.992776 29.762009 3.874799
2009-06-22 07:47:24 51°12.558 2°49.049 17.7493 4.014868 30.001618 3.631031
2009-06-22 07:47:28 51°12.551 2°49.028 17.7592 4.022439 30.102514 3.491735
2009-06-22 07:47:33 51°12.542 2°49.003 17.7304 4.04588 30.326192 3.247966
2009-06-22 07:47:38 51°12.534 2°48.978 17.7187 4.04588 30.326192 3.247966
2009-06-22 07:47:44 51°12.524 2°48.948 17.7214 4.070567 30.572789 3.10867
2009-06-22 07:47:48 51°12.517 2°48.928 17.7003 4.079903 30.671215 3.039022
2009-06-22 07:47:53 51°12.509 2°48.903 17.7068 4.082082 30.710387 2.969374
2009-06-22 07:47:58 51°12.501 2°48.878 17.6958 4.092455 30.811782 2.864902
2009-06-22 07:48:04 51°12.491 2°48.848 17.681 4.089136 30.799537 2.830078
2009-06-22 07:48:08 51°12.484 2°48.828 17.6879 4.089136 30.799537 2.830078
2009-06-22 07:48:13 51°12.475 2°48.803 17.672 4.092663 30.846594 2.76043
2009-06-22 07:48:18 51°12.467 2°48.777 17.6635 4.093493 30.862601 2.76043
2009-06-22 07:48:24 51°12.457 2°48.748 17.6491 4.095464 30.890021 2.655957
2009-06-22 07:48:28 51°12.45 2°48.728 17.64 4.107186 30.997678 2.551485
2009-06-22 07:48:33 51°12.441 2°48.703 17.6394 4.118183 31.096902 2.516661
2009-06-22 07:48:38 51°12.432 2°48.678 17.6457 4.118183 31.096902 2.516661
2009-06-22 07:48:44 51°12.421 2°48.649 17.6406 4.127104 31.181781 2.481837
2009-06-22 07:48:48 51°12.414 2°48.629 17.6303 4.132291 31.231593 2.447013
2009-06-22 07:48:53 51°12.406 2°48.604 17.6329 4.13613 31.272511 2.412189
2009-06-22 07:48:58 51°12.397 2°48.579 17.6262 4.141213 31.325798 2.307717
2009-06-22 07:49:04 51°12.387 2°48.549 17.6204 4.143496 31.351191 2.307717
2009-06-22 07:49:09 51°12.378 2°48.524 17.6174 4.143496 31.351191 2.307717
2009-06-22 07:49:13 51°12.372 2°48.504 17.6228 4.145778 31.375367 2.307717
2009-06-22 07:49:18 51°12.363 2°48.48 17.6156 4.149098 31.406467 2.238069
2009-06-22 07:49:24 51°12.352 2°48.45 17.6079 4.152107 31.436796 2.238069
2009-06-22 07:49:29 51°12.344 2°48.426 17.6069 4.154908 31.464768 2.238069
2009-06-22 07:49:33 51°12.337 2°48.406 17.5971 4.157709 31.489666 2.168421
2009-06-22 07:49:38 51°12.329 2°48.381 17.6011 4.157709 31.489666 2.168421
2009-06-22 07:49:44 51°12.318 2°48.352 17.6004 4.160718 31.51941 2.098773
2009-06-22 07:49:48 51°12.311 2°48.332 17.6054 4.162274 31.536888 2.168421
2009-06-22 07:49:53 51°12.302 2°48.308 17.586 4.16466 31.560771 2.133597
2009-06-22 07:49:58 51°12.294 2°48.284 17.5896 4.165802 31.574753 2.098773
2009-06-22 07:50:04 51°12.283 2°48.254 17.5763 4.167151 31.591113 2.098773
2009-06-22 07:50:08 51°12.276 2°48.235 17.5762 4.167151 31.591113 2.098773
2009-06-22 07:50:13 51°12.267 2°48.211 17.5767 4.168396 31.605362 2.098773
2009-06-22 07:50:19 51°12.256 2°48.181 17.5771 4.169433 31.615999 2.098773
2009-06-22 07:50:24 51°12.247 2°48.157 17.5706 4.170471 31.626638 2.063949
2009-06-22 07:50:28 51°12.24 2°48.137 17.5699 4.171508 31.639761 2.098773
2009-06-22 07:50:33 51°12.231 2°48.114 17.5611 4.173272 31.658414 2.098773
2009-06-22 07:50:38 51°12.223 2°48.089 17.5655 4.173272 31.658414 2.098773
2009-06-22 07:50:44 51°12.212 2°48.06 17.568 4.174102 31.669789 2.063949
2009-06-22 07:50:48 51°12.206 2°48.04 17.5636 4.174932 31.680547 2.063949
2009-06-22 07:50:53 51°12.196 2°48.016 17.5672 4.175555 31.688928 2.098773
2009-06-22 07:50:58 51°12.188 2°47.992 17.5542 4.176592 31.700825 2.133597
2009-06-22 07:51:04 51°12.178 2°47.962 17.5666 4.176696 31.705439 2.133597
2009-06-22 07:51:08 51°12.17 2°47.944 17.5578 4.176696 31.705439 2.133597
2009-06-22 07:51:13 51°12.162 2°47.919 17.5576 4.176696 31.707307 2.098773
2009-06-22 07:51:18 51°12.153 2°47.895 17.5599 4.176696 31.708552 2.168421
2009-06-22 07:51:24 51°12.143 2°47.865 17.5588 4.178045 31.721224 2.203245
2009-06-22 07:51:29 51°12.134 2°47.841 17.5578 4.178875 31.729502 2.203245
2009-06-22 07:51:33 51°12.127 2°47.821 17.5547 4.17846 31.727232 2.377365
2009-06-22 07:51:38 51°12.119 2°47.797 17.5568 4.17846 31.727232 2.377365
2009-06-22 07:51:44 51°12.109 2°47.768 17.5509 4.178564 31.728734 2.238069
2009-06-22 07:51:48 51°12.101 2°47.749 17.5512 4.168396 31.643227 2.133597
2009-06-22 07:51:53 51°12.093 2°47.724 17.5505 4.173376 31.686654 2.133597
2009-06-22 07:51:58 51°12.084 2°47.7 17.5474 4.175555 31.705735 2.098773
2009-06-22 07:52:04 51°12.074 2°47.671 17.5443 4.174206 31.696176 2.098773
2009-06-22 07:52:08 51°12.067 2°47.651 17.5495 4.174206 31.696176 2.098773
2009-06-22 07:52:13 51°12.058 2°47.626 17.5524 4.178979 31.737862 2.133597
2009-06-22 07:52:18 51°12.05 2°47.602 17.5438 4.178356 31.733833 2.133597
2009-06-22 07:52:24 51°12.04 2°47.573 17.5461 4.180535 31.752922 2.098773
2009-06-22 07:52:28 51°12.033 2°47.553 17.5461 4.178149 31.734569 2.133597
2009-06-22 07:52:33 51°12.024 2°47.529 17.5435 4.181469 31.765205 2.133597
2009-06-22 07:52:39 51°12.015 2°47.499 17.5439 4.181469 31.765205 2.133597
2009-06-22 07:52:44 51°12.006 2°47.474 17.5505 4.184789 31.793976 2.133597
2009-06-22 07:52:48 51°11.999 2°47.454 17.5503 4.179186 31.746481 2.133597
2009-06-22 07:52:53 51°11.991 2°47.429 17.5474 4.183129 31.781151 2.168421
2009-06-22 07:52:58 51°11.982 2°47.405 17.5463 4.178253 31.740438 2.203245
2009-06-22 07:53:04 51°11.973 2°47.375 17.5475 4.178356 31.741941 2.203245
2009-06-22 07:53:08 51°11.966 2°47.355 17.5515 4.178356 31.741941 2.203245
2009-06-22 07:53:13 51°11.957 2°47.33 17.5465 4.184374 31.793582 2.168421
2009-06-22 07:53:18 51°11.949 2°47.306 17.5487 4.185619 31.803513 2.203245
2009-06-22 07:53:24 51°11.939 2°47.276 17.5453 4.185204 31.798744 2.203245
2009-06-22 07:53:28 51°11.932 2°47.256 17.5528 4.189147 31.8328 2.168421
2009-06-22 07:53:33 51°11.924 2°47.231 17.5476 4.18925 31.83368 2.203245
2009-06-22 07:53:38 51°11.916 2°47.205 17.5489 4.18925 31.83368 2.203245
2009-06-22 07:53:44 51°11.906 2°47.175 17.5488 4.189873 31.838959 2.203245
2009-06-22 07:53:49 51°11.898 2°47.15 17.5521 4.191014 31.848638 2.238069
2009-06-22 07:53:53 51°11.892 2°47.13 17.5491 4.192259 31.859197 2.238069
2009-06-22 07:53:58 51°11.884 2°47.105 17.5522 4.192052 31.856811 2.238069
2009-06-22 07:54:04 51°11.874 2°47.075 17.5516 4.192052 31.856185 2.238069
2009-06-22 07:54:09 51°11.866 2°47.05 17.5459 4.192052 31.856185 2.238069
2009-06-22 07:54:13 51°11.86 2°47.03 17.5489 4.18593 31.804902 2.238069
2009-06-22 07:54:18 51°11.852 2°47.005 17.5494 4.192674 31.862091 2.272893
2009-06-22 07:54:24 51°11.843 2°46.974 17.5488 4.195164 31.882584 2.272893
2009-06-22 07:54:28 51°11.837 2°46.954 17.5498 4.194853 31.879944 2.272893
2009-06-22 07:54:33 51°11.829 2°46.929 17.549 4.197032 31.898425 2.272893
2009-06-22 07:54:38 51°11.821 2°46.903 17.5447 4.197032 31.898425 2.272893
2009-06-22 07:54:44 51°11.812 2°46.874 17.5478 4.197447 31.901945 2.342541
2009-06-22 07:54:48 51°11.806 2°46.853 17.5443 4.198692 31.913134 2.307717
2009-06-22 07:54:53 51°11.799 2°46.828 17.5432 4.198796 31.914014 2.272893
2009-06-22 07:54:59 51°11.789 2°46.798 17.5424 4.19973 31.921936 2.272893
2009-06-22 07:55:04 51°11.782 2°46.773 17.542 4.199833 31.922816 2.307717
2009-06-22 07:55:08 51°11.777 2°46.752 17.5494 4.199833 31.922816 2.307717
2009-06-22 07:55:13 51°11.77 2°46.726 17.5418 4.201182 31.934887 2.307717
2009-06-22 07:55:19 51°11.762 2°46.695 17.542 4.201908 31.942305 2.272893
2009-06-22 07:55:24 51°11.756 2°46.669 17.5411 4.203465 31.956138 2.272893
2009-06-22 07:55:28 51°11.751 2°46.648 17.5395 4.204087 31.962678 2.307717
2009-06-22 07:55:33 51°11.745 2°46.622 17.5354 4.204502 31.966828 2.342541
2009-06-22 07:55:38 51°11.739 2°46.596 17.5348 4.204502 31.966828 2.342541
2009-06-22 07:55:44 51°11.733 2°46.564 17.5335 4.204917 31.969721 2.307717
2009-06-22 07:55:49 51°11.727 2°46.538 17.529 4.20554 31.975004 2.307717
2009-06-22 07:55:53 51°11.722 2°46.517 17.5278 4.206163 31.981545 2.307717
2009-06-22 07:55:58 51°11.716 2°46.49 17.5246 4.206889 31.988338 2.307717
2009-06-22 07:56:04 51°11.709 2°46.458 17.5227 4.207719 31.997271 2.342541
2009-06-22 07:56:09 51°11.704 2°46.432 17.5231 4.207719 31.997271 2.342541
2009-06-22 07:56:13 51°11.699 2°46.411 17.5203 4.208342 32.004443 2.342541
2009-06-22 07:56:18 51°11.694 2°46.384 17.518 4.209275 32.014258 2.307717
2009-06-22 07:56:24 51°11.687 2°46.352 17.514 4.210209 32.024705 2.377365
2009-06-22 07:56:28 51°11.683 2°46.33 17.5147 4.211143 32.034524 2.377365
2009-06-22 07:56:33 51°11.677 2°46.304 17.5158 4.211973 32.043464 2.342541
2009-06-22 07:56:38 51°11.672 2°46.277 17.5099 4.211973 32.043464 2.342541
2009-06-22 07:56:44 51°11.664 2°46.245 17.5129 4.212596 32.050642 2.377365
2009-06-22 07:56:48 51°11.66 2°46.224 17.5084 4.213218 32.057191 2.377365
2009-06-22 07:56:53 51°11.653 2°46.197 17.5056 4.214048 32.066133 2.412189
2009-06-22 07:56:59 51°11.647 2°46.165 17.5036 4.214567 32.072433 2.377365
2009-06-22 07:57:04 51°11.641 2°46.138 17.5005 4.214982 32.077852 2.377365
2009-06-22 07:57:08 51°11.637 2°46.117 17.4989 4.214982 32.077852 2.377365
2009-06-22 07:57:13 51°11.631 2°46.09 17.4985 4.215294 32.081128 2.412189
2009-06-22 07:57:19 51°11.625 2°46.058 17.4974 4.215605 32.085035 2.412189
2009-06-22 07:57:24 51°11.619 2°46.031 17.4989 4.215916 32.089575 2.412189
2009-06-22 07:57:28 51°11.615 2°46.009 17.4964 4.216228 32.094114 2.412189
2009-06-22 07:57:33 51°11.609 2°45.982 17.4946 4.216643 32.100168 2.447013
2009-06-22 07:57:37 51°11.605 2°45.96 17.4942 4.216643 32.100168 2.447013
2009-06-22 07:57:44 51°11.597 2°45.923 17.4937 4.216746 32.102946 2.412189
2009-06-22 07:57:48 51°11.592 2°45.901 17.4932 4.216954 32.105973 2.412189
2009-06-22 07:57:53 51°11.586 2°45.874 17.4988 4.216954 32.107237 2.447013
2009-06-22 07:57:57 51°11.582 2°45.853 17.4955 4.217058 32.109384 2.447013
2009-06-22 07:58:03 51°11.575 2°45.82 17.4966 4.217162 32.11153 2.447013
2009-06-22 07:58:09 51°11.568 2°45.788 17.4936 4.217162 32.11153 2.447013
2009-06-22 07:58:13 51°11.563 2°45.767 17.4937 4.217162 32.112794 2.447013
2009-06-22 07:58:17 51°11.559 2°45.745 17.4933 4.217265 32.114309 2.481837
2009-06-22 07:58:23 51°11.552 2°45.712 17.4956 4.217162 32.112794 2.447013
2009-06-22 07:58:28 51°11.546 2°45.686 17.494 4.217162 32.112162 2.447013
2009-06-22 07:58:33 51°11.541 2°45.659 17.4946 4.217369 32.114559 2.447013
2009-06-22 07:58:38 51°11.535 2°45.632 17.4982 4.217369 32.114559 2.447013
2009-06-22 07:58:44 51°11.528 2°45.6 17.4932 4.21768 32.117205 2.481837
2009-06-22 07:58:48 51°11.524 2°45.578 17.496 4.217888 32.119601 2.447013
2009-06-22 07:58:53 51°11.517 2°45.552 17.4942 4.217992 32.121116 2.481837
2009-06-22 07:58:58 51°11.512 2°45.524 17.493 4.218199 32.12288 2.481837
2009-06-22 07:59:04 51°11.505 2°45.492 17.4909 4.218407 32.124644 2.447013
2009-06-22 07:59:09 51°11.499 2°45.465 17.489 4.218407 32.124644 2.447013
2009-06-22 07:59:13 51°11.495 2°45.444 17.489 4.218718 32.126658 2.481837
2009-06-22 07:59:18 51°11.489 2°45.417 17.4888 4.219237 32.131069 2.447013
2009-06-22 07:59:24 51°11.483 2°45.384 17.4881 4.219859 32.136361 2.447013
2009-06-22 07:59:28 51°11.478 2°45.363 17.4828 4.220482 32.142287 2.481837
2009-06-22 07:59:33 51°11.472 2°45.336 17.4832 4.221312 32.149978 2.447013
2009-06-22 07:59:39 51°11.465 2°45.304 17.4835 4.221312 32.149978 2.447013
2009-06-22 07:59:44 51°11.46 2°45.277 17.4842 4.222038 32.15742 2.481837
2009-06-22 07:59:48 51°11.455 2°45.255 17.4824 4.222868 32.165746 2.481837
2009-06-22 07:59:53 51°11.449 2°45.228 17.4801 4.223699 32.173438 2.447013
2009-06-22 07:59:58 51°11.443 2°45.201 17.4838 4.224944 32.185295 2.447013
2009-06-22 08:00:04 51°11.436 2°45.169 17.4788 4.225981 32.195389 2.447013
2009-06-22 08:00:09 51°11.43 2°45.142 17.4749 4.225981 32.195389 2.447013
2009-06-22 08:00:13 51°11.425 2°45.12 17.4793 4.227019 32.205483 2.447013
2009-06-22 08:00:18 51°11.419 2°45.094 17.4771 4.228264 32.21671 2.481837
2009-06-22 08:00:23 51°11.413 2°45.067 17.4737 4.229406 32.227054 2.447013
2009-06-22 08:00:29 51°11.406 2°45.035 17.4747 4.230651 32.238283 2.481837
2009-06-22 08:00:33 51°11.401 2°45.014 17.4714 4.231688 32.247747 2.481837
2009-06-22 08:00:38 51°11.395 2°44.987 17.471 4.231688 32.247747 2.481837
2009-06-22 08:00:44 51°11.387 2°44.955 17.4714 4.232726 32.257211 2.481837
2009-06-22 08:00:48 51°11.383 2°44.933 17.4707 4.233867 32.268195 2.481837
2009-06-22 08:00:53 51°11.377 2°44.906 17.4704 4.23532 32.281194 2.447013
2009-06-22 08:00:58 51°11.371 2°44.879 17.4698 4.236358 32.290661 2.447013
2009-06-22 08:01:04 51°11.365 2°44.846 17.4716 4.237395 32.300765 2.516661
2009-06-22 08:01:09 51°11.36 2°44.819 17.4675 4.237395 32.300765 2.516661
2009-06-22 08:01:14 51°11.354 2°44.792 17.4709 4.238329 32.309351 2.481837
2009-06-22 08:01:18 51°11.349 2°44.769 17.4661 4.239159 32.318327 2.481837
2009-06-22 08:01:24 51°11.343 2°44.737 17.4639 4.239782 32.323628 2.481837
2009-06-22 08:01:28 51°11.338 2°44.715 17.4659 4.24082 32.333099 2.481837
2009-06-22 08:01:33 51°11.333 2°44.688 17.4655 4.241442 32.339037 2.481837
2009-06-22 08:01:38 51°11.327 2°44.661 17.462 4.241442 32.339037 2.481837
2009-06-22 08:01:44 51°11.32 2°44.628 17.4624 4.242272 32.346742 2.516661
2009-06-22 08:01:48 51°11.315 2°44.606 17.4631 4.242895 32.352681 2.481837
2009-06-22 08:01:53 51°11.31 2°44.579 17.4628 4.243725 32.360387 2.481837
2009-06-22 08:01:58 51°11.304 2°44.552 17.4627 4.244452 32.367848 2.516661
2009-06-22 08:02:04 51°11.297 2°44.519 17.4613 4.24497 32.372266 2.481837
2009-06-22 08:02:08 51°11.293 2°44.497 17.4609 4.24497 32.372266 2.481837
2009-06-22 08:02:13 51°11.287 2°44.47 17.4632 4.2458 32.379974 2.516661
2009-06-22 08:02:18 51°11.281 2°44.443 17.4609 4.246527 32.386799 2.516661
2009-06-22 08:02:24 51°11.274 2°44.41 17.4607 4.247149 32.39274 2.516661
2009-06-22 08:02:29 51°11.268 2°44.383 17.4602 4.247565 32.396914 2.551485
2009-06-22 08:02:33 51°11.263 2°44.361 17.4598 4.248083 32.401972 2.551485
2009-06-22 08:02:38 51°11.258 2°44.334 17.4581 4.248083 32.401972 2.551485
2009-06-22 08:02:44 51°11.251 2°44.301 17.4602 4.248706 32.407275 2.516661
2009-06-22 08:02:48 51°11.246 2°44.28 17.4613 4.249121 32.410811 2.516661
2009-06-22 08:02:53 51°11.24 2°44.253 17.4588 4.24964 32.41587 2.551485
2009-06-22 08:02:58 51°11.234 2°44.225 17.4591 4.250262 32.421173 2.551485
2009-06-22 08:03:04 51°11.228 2°44.193 17.4589 4.250781 32.426233 2.586309
2009-06-22 08:03:09 51°11.222 2°44.166 17.4587 4.250781 32.426233 2.586309
2009-06-22 08:03:13 51°11.217 2°44.144 17.4576 4.2513 32.431292 2.586309
2009-06-22 08:03:18 51°11.212 2°44.117 17.459 4.251715 32.435468 2.551485
2009-06-22 08:03:24 51°11.206 2°44.084 17.4587 4.252027 32.43748 2.551485
2009-06-22 08:03:28 51°11.202 2°44.061 17.4569 4.252545 32.44254 2.551485
2009-06-22 08:03:33 51°11.197 2°44.034 17.4586 4.252857 32.445193 2.586309
2009-06-22 08:03:38 51°11.192 2°44.007 17.459 4.252857 32.445193 2.586309
2009-06-22 08:03:44 51°11.186 2°43.974 17.4563 4.253168 32.448485 2.586309
2009-06-22 08:03:48 51°11.182 2°43.952 17.4588 4.253479 32.451137 2.621133
2009-06-22 08:03:53 51°11.177 2°43.924 17.4572 4.253687 32.452906 2.586309
2009-06-22 08:03:58 51°11.172 2°43.897 17.4576 4.254102 32.456443 2.586309
2009-06-22 08:04:04 51°11.167 2°43.864 17.4564 4.254517 32.459979 2.586309
2009-06-22 08:04:08 51°11.164 2°43.842 17.4557 4.254517 32.459979 2.586309
2009-06-22 08:04:13 51°11.16 2°43.814 17.4547 4.254828 32.463272 2.586309
2009-06-22 08:04:18 51°11.157 2°43.786 17.4577 4.255243 32.467449 2.586309
2009-06-22 08:04:24 51°11.154 2°43.752 17.4541 4.255451 32.469218 2.621133
2009-06-22 08:04:28 51°11.153 2°43.73 17.4538 4.25597 32.473639 2.621133
2009-06-22 08:04:33 51°11.151 2°43.701 17.455 4.256489 32.47742 2.621133
2009-06-22 08:04:38 51°11.149 2°43.673 17.452 4.256489 32.47742 2.621133
2009-06-22 08:04:44 51°11.147 2°43.639 17.4496 4.257007 32.483123 2.655957
2009-06-22 08:04:48 51°11.146 2°43.617 17.4507 4.257215 32.484891 2.655957
2009-06-22 08:04:53 51°11.145 2°43.588 17.4498 4.25763 32.487788 2.655957
2009-06-22 08:04:58 51°11.143 2°43.56 17.4472 4.258356 32.49462 2.655957
2009-06-22 08:05:04 51°11.142 2°43.526 17.4464 4.258979 32.501208 2.655957
2009-06-22 08:05:08 51°11.141 2°43.503 17.4455 4.258979 32.501208 2.655957
2009-06-22 08:05:13 51°11.14 2°43.475 17.4446 4.259705 32.50804 2.690782
2009-06-22 08:05:18 51°11.138 2°43.446 17.4456 4.260536 32.516398 2.690782
2009-06-22 08:05:24 51°11.137 2°43.412 17.4445 4.261262 32.522591 2.725606
2009-06-22 08:05:28 51°11.136 2°43.389 17.4451 4.2623 32.53272 2.725606
2009-06-22 08:05:33 51°11.135 2°43.361 17.4426 4.26313 32.540439 2.725606
2009-06-22 08:05:38 51°11.133 2°43.332 17.4414 4.26313 32.540439 2.725606
2009-06-22 08:05:44 51°11.132 2°43.298 17.4423 4.26396 32.548801 2.725606
2009-06-22 08:05:48 51°11.131 2°43.277 17.4416 4.264583 32.555393 2.690782
2009-06-22 08:05:53 51°11.129 2°43.249 17.4391 4.265309 32.56223 2.725606
2009-06-22 08:05:58 51°11.128 2°43.222 17.4402 4.265724 32.565769 2.795254
2009-06-22 08:06:04 51°11.126 2°43.19 17.4412 4.266451 32.572606 2.830078
2009-06-22 08:06:08 51°11.125 2°43.169 17.4388 4.266451 32.572606 2.830078
2009-06-22 08:06:13 51°11.123 2°43.143 17.4381 4.267281 32.580328 2.830078
2009-06-22 08:06:18 51°11.122 2°43.118 17.4352 4.267696 32.584511 2.830078
2009-06-22 08:06:24 51°11.121 2°43.086 17.436 4.268319 32.591107 2.864902
2009-06-22 08:06:28 51°11.12 2°43.066 17.4362 4.268734 32.59529 2.864902
2009-06-22 08:06:33 51°11.119 2°43.04 17.4331 4.269149 32.598831 2.864902
2009-06-22 08:06:39 51°11.117 2°43.009 17.4337 4.269149 32.598831 2.864902
2009-06-22 08:06:44 51°11.116 2°42.984 17.4344 4.269771 32.604142 2.899726
2009-06-22 08:06:48 51°11.115 2°42.963 17.4335 4.270394 32.610739 2.93455
2009-06-22 08:06:53 51°11.114 2°42.937 17.4327 4.271017 32.616694 3.004198
2009-06-22 08:06:58 51°11.113 2°42.912 17.434 4.271536 32.622408 2.969374
2009-06-22 08:07:04 51°11.111 2°42.881 17.433 4.272054 32.627478 3.004198
2009-06-22 08:07:08 51°11.11 2°42.861 17.4298 4.272054 32.627478 3.004198
2009-06-22 08:07:13 51°11.109 2°42.835 17.4317 4.272573 32.632548 2.969374